GFSNE_con_sbcape_000.txt.gz
CAPE
12 67 156 43 52 70 98 106 68 28 15 23 39 43 25 38 35 26 1 0 0 0 0 0 0 0 0 0 0 0 0 0 0 5 20 192 1252 1734
0 7 73 50 77 94 95 96 63 30 15 23 8 29 38 42 101 76 72 45 0 0 0 0 0 0 0 0 0 0 0 0 0 0 2 0 47 700
3 97 264 431 149 84 80 60 85 84 71 7 16 31 57 111 106 155 132 86 54 19 0 0 0 0 0 0 0 0 0 0 0 0 0 4 0 63
47 235 396 271 356 447 185 254 204 181 137 217 160 67 285 52 87 214 192 65 76 46 4 0 0 0 0 0 0 0 0 0 0 0 0 0 3 0
187 312 363 375 370 265 256 142 149 142 173 130 139 115 77 51 171 401 366 342 90 136 35 5 0 0 0 0 0 0 0 0 0 0 0 0 0 1
321 439 586 599 559 438 263 450 380 242 341 120 173 93 122 209 193 99 97 112 80 119 97 15 1 0 0 0 0 0 0 0 0 0 0 0 0 0
499 642 769 865 409 345 226 402 331 225 162 127 150 99 78 103 267 134 115 176 328 337 148 42 8 13 10 1 2 3 0 0 0 0 0 0 0 0
831 921 998 853 499 189 65 36 71 148 130 89 83 121 346 435 330 203 213 173 202 323 293 24 126 129 45 5 1 0 0 0 0 0 0 0 0 0
1065 950 722 439 328 575 159 20 12 0 0 131 299 270 467 405 331 481 311 258 144 32 258 184 155 62 33 18 1 0 0 0 0 0 0 0 0 0
824 526 548 401 403 624 504 271 220 221 286 217 188 127 155 113 50 35 51 54 84 47 378 231 58 21 31 25 0 0 0 0 0 0 0 0 0 0
593 320 245 416 89 0 93 154 268 238 39 0 0 0 0 0 0 8 5 38 27 23 37 47 39 58 21 1 0 1 0 0 0 0 0 0 1 1
420 222 5 29 0 0 24 132 153 149 93 2 16 13 0 8 1 20 13 33 44 25 8 57 46 18 6 10 27 22 8 0 0 0 0 0 0 0
349 845 330 0 0 0 0 14 47 0 0 0 0 0 0 9 25 42 21 4 1 0 0 46 73 15 8 11 13 12 28 1 2 19 0 0 1 0
985 405 31 0 0 0 0 0 0 0 0 2 1 0 1 5 5 1 0 0 0 8 68 305 97 9 7 5 13 13 12 8 45 68 49 0 0 0
379 23 0 0 0 0 0 0 0 0 9 1 0 0 0 0 0 10 6 17 31 44 68 285 71 7 2 12 13 21 10 1 1 543 415 17 3 4
0 0 0 0 0 0 0 0 1 4 1 0 0 0 0 0 0 0 0 0 12 23 59 85 19 34 12 11 25 20 25 36 18 399 366 237 48 7
0 0 1 9 11 15 15 8 5 2 0 0 0 0 0 0 0 0 0 0 18 15 3 19 17 19 6 19 16 16 9 8 40 76 39 10 12 136
0 0 3 4 3 7 8 3 0 0 0 0 0 0 0 0 0 0 0 3 13 29 0 0 185 13 4 3 2 23 16 12 4 23 16 7 7 11
0 0 0 0 0 0 0 0 0 0 0 0 0 0 0 0 0 0 0 0 6 11 0 1 170 19 9 7 22 0 16 7 9 4 266 44 88 16
0 0 0 0 0 0 0 0 0 0 0 0 0 0 0 0 0 0 0 0 6 13 2 3 4 9 3 9 12 27 5 6 13 13 20 261 402 102
0 0 0 0 0 0 0 0 0 0 0 0 0 0 0 0 0 0 0 0 0 14 3 0 3 1 13 5 4 11 18 0 0 9 11 4 300 47
0 0 0 0 0 0 0 0 0 0 0 0 0 0 0 0 0 0 0 0 5 6 0 0 2 1 9 6 5 6 16 5 3 2 1 3 3 4
0 0 0 0 0 0 0 0 0 0 0 0 0 0 0 0 0 0 0 0 0 0 0 8 0 0 7 7 4 8 6 8 3 6 10 0 0 0

GFSNE_con_sbcape_003.txt.gz
CAPE
192 738 211 21 31 42 52 174 121 62 92 91 48 146 63 73 54 17 40 61 3 0 0 0 0 0 0 0 0 0 0 0 0 0 0 0 1 24
4 541 688 52 6 32 57 72 42 27 37 41 52 110 105 57 94 91 58 138 34 0 0 0 0 0 0 0 0 0 0 0 0 0 0 0 0 2
602 285 544 966 103 30 46 56 42 44 21 48 20 133 781 713 453 351 138 422 84 35 19 0 0 0 0 0 0 0 0 0 0 0 0 0 0 0
134 710 514 307 1357 1546 205 1282 690 436 94 591 264 21 427 780 891 882 222 43 97 43 38 0 0 0 0 0 0 0 0 0 0 0 0 0 0 0
130 657 611 1191 1394 700 1152 545 316 660 380 117 81 113 127 179 232 694 895 361 139 41 7 7 0 0 0 0 0 0 0 0 0 0 0 0 0 0
460 746 822 1035 1205 1211 1163 1454 1188 759 465 189 89 100 166 90 217 140 139 120 112 67 41 1 4 42 5 0 0 0 0 0 0 0 0 0 0 0
499 433 855 1071 677 607 1103 367 1135 677 385 310 225 169 204 146 184 234 189 173 80 104 74 112 240 260 115 61 156 120 1 0 0 0 0 0 0 0
738 756 1150 854 366 286 276 157 60 167 427 252 141 206 428 444 417 492 339 67 21 123 212 117 92 185 314 446 233 9 0 0 0 0 0 0 0 0
1167 1019 1099 535 330 443 439 146 72 26 29 219 361 584 494 366 525 499 333 169 30 9 126 49 85 237 412 356 25 0 0 0 0 0 0 0 0 0
885 1000 1246 1130 964 480 633 526 496 796 579 198 286 519 418 157 65 38 75 60 71 87 255 115 111 140 294 361 8 0 0 0 0 0 0 0 0 0
1142 1050 1268 756 338 133 110 150 589 824 304 34 4 0 0 0 0 0 3 7 14 25 18 54 73 16 14 4 63 0 0 0 0 0 0 0 0 0
1733 1379 145 112 46 0 144 227 425 533 306 190 135 0 10 8 0 6 38 55 41 29 7 3 0 0 45 16 31 11 2 4 1 0 0 0 0 0
590 888 262 0 0 0 0 43 158 5 118 0 0 3 80 58 10 73 219 6 4 0 0 0 0 50 161 69 5 0 9 6 19 7 0 0 0 0
473 423 902 0 0 0 0 0 0 0 0 0 7 37 30 1 1 5 23 23 4 32 0 7 100 230 151 24 7 4 3 9 5 7 7 1 0 0
487 0 0 0 0 0 0 0 0 0 0 21 24 5 0 0 12 11 29 28 12 11 56 145 83 79 148 34 22 8 16 5 21 5 5 96 2 3
0 8 0 0 0 0 0 0 0 1 16 3 0 0 0 0 0 0 0 0 0 1 41 145 3 64 94 67 14 8 34 19 16 21 20 449 2 0
110 129 19 35 25 46 34 36 33 25 9 1 0 0 0 0 0 0 0 0 0 9 18 24 0 110 280 57 10 5 27 8 8 15 6 159 161 95
14 20 20 25 31 30 58 52 26 5 2 0 0 0 0 0 0 0 0 0 0 8 26 54 16 11 3 0 25 38 47 18 9 12 4 27 31 41
0 0 12 17 21 14 6 4 1 0 0 0 0 0 0 0 0 0 0 0 0 11 39 48 2 16 3 2 6 30 29 20 8 8 11 7 21 30
0 1 8 10 2 0 0 0 0 0 0 0 0 0 0 0 0 0 0 0 0 8 37 0 0 3 6 4 25 25 9 9 6 6 14 6 4 6
21 3 0 0 0 0 0 0 0 0 0 0 0 0 0 0 0 0 0 0 0 4 21 24 0 0 1 76 9 3 1 0 0 7 15 6 8 131
6 1 0 0 0 0 0 0 0 0 0 0 0 0 0 0 0 0 0 0 0 0 2 22 0 0 1 14 9 11 1 1 1 0 4 11 21 9
7 2 1 0 0 0 0 0 0 0 0 0 0 0 0 0 0 0 0 0 0 0 0 0 0 0 0 3 5 19 4 2 6 6 1 0 10 0

GFSNE_con_sbcape_006.txt.gz
CAPE
847 669 470 145 311 334 199 271 47 57 22 92 77 117 48 75 57 43 10 117 50 0 0 0 0 0 0 0 0 0 0 0 0 0 0 0 0 0
434 614 592 325 472 340 52 243 64 95 43 102 115 152 206 149 106 125 132 163 118 16 0 0 0 0 0 0 0 0 0 0 0 0 0 0 0 0
524 651 547 1003 606 410 658 314 152 199 240 118 87 116 132 160 125 154 237 149 124 41 22 6 0 0 0 0 0 0 0 0 0 0 0 0 0 0
842 890 675 468 1014 782 854 672 734 623 384 356 294 210 169 268 318 275 191 25 44 39 62 33 14 0 0 0 0 0 0 0 0 0 0 0 0 0
530 712 720 824 1014 1003 740 810 553 419 266 149 128 239 84 33 48 81 45 293 349 108 22 0 5 3 0 0 0 0 0 0 0 0 0 0 0 0
918 933 1039 809 925 1047 760 924 933 625 217 126 115 100 196 97 245 91 39 152 175 49 36 14 6 4 0 0 0 0 0 0 0 0 0 0 0 0
672 999 965 1029 670 806 914 718 992 468 180 34 31 13 40 132 100 102 70 61 39 49 53 31 0 3 0 0 0 10 0 0 0 0 0 0 0 0
640 1000 1228 411 257 93 82 151 652 379 137 37 36 42 51 159 163 112 101 42 0 0 49 0 0 0 0 0 0 0 0 3 1 0 0 0 0 0
675 1049 678 538 507 792 277 143 119 72 60 20 35 71 118 194 158 104 80 45 0 0 0 0 0 7 0 5 9 10 10 2 0 0 0 0 0 0
710 830 307 827 1099 1218 729 825 302 244 193 119 57 49 245 414 167 26 0 0 0 0 3 4 0 0 0 0 0 0 0 0 0 0 0 0 0 0
655 621 769 1314 1195 142 230 236 236 592 546 152 163 201 56 0 0 8 0 0 0 0 1 0 5 1 0 0 0 0 0 0 0 0 0 0 0 0
741 905 313 518 694 45 143 385 656 617 629 480 118 14 3 2 0 0 4 8 19 16 5 0 0 0 0 0 0 0 0 0 0 0 0 0 0 0
444 713 874 153 0 0 0 70 66 0 5 50 33 0 0 59 68 124 90 57 0 0 0 0 0 0 0 3 7 1 0 0 0 0 0 0 0 0
584 753 111 0 0 0 0 0 0 0 0 0 0 0 28 22 4 0 0 0 0 0 3 17 2 1 42 2 0 0 0 1 3 21 10 0 0 0
455 0 0 0 0 0 0 0 0 0 0 0 0 25 0 0 0 0 7 3 2 1 0 59 75 48 27 19 45 32 8 2 4 20 2 7 9 10
0 0 0 0 0 0 0 0 0 0 0 13 2 0 7 0 0 0 0 0 0 0 0 102 50 63 12 45 71 4 3 35 21 20 11 5 6 3
21 52 1 15 25 0 1 23 12 25 45 47 13 1 0 0 0 0 0 0 0 0 0 32 76 61 46 34 0 0 21 30 15 15 8 6 6 10
108 545 338 226 164 56 31 31 41 55 64 9 1 0 0 0 0 0 0 0 0 0 1 59 19 1 0 0 5 7 26 23 14 9 8 17 7 2
205 207 58 247 226 170 45 23 10 23 0 0 0 0 0 0 0 0 0 0 0 0 0 50 0 1 5 4 0 23 42 10 17 10 15 13 6 2
0 4 80 147 89 15 1 0 0 0 0 0 0 0 0 0 0 0 0 0 0 0 0 66 13 2 1 2 7 6 0 6 15 15 11 6 5 0
2 17 42 13 17 9 3 1 0 0 0 0 0 0 0 0 0 0 0 0 0 0 20 18 42 0 0 1 2 0 0 0 2 17 23 6 8 5
132 57 51 35 11 1 0 0 0 0 0 0 0 0 0 0 0 0 0 0 0 0 10 6 0 3 0 0 2 5 7 1 1 11 18 9 16 11
181 64 67 60 20 5 2 0 0 0 0 0 0 0 0 0 0 0 0 0 0 0 0 0 11 8 0 0 3 2 2 2 9 6 8 1 7 5

GFSNE_con_sbcape_009.txt.gz
CAPE
0 0 0 0 0 0 6 1 0 0 0 0 0 0 3 5 1 4 0 0 0 0 0 0 0 0 0 0 0 0 0 0 0 0 0 0 0 0
6 5 0 0 0 18 11 5 1 4 0 0 6 0 52 39 23 50 2 54 15 15 0 0 0 0 0 2 0 0 0 0 0 0 0 0 0 0
0 0 44 28 16 16 70 27 11 16 3 5 0 4 7 0 0 0 6 25 24 15 1 0 0 0 0 2 8 0 0 0 0 0 0 0 0 0
15 8 3 0 76 81 157 141 141 107 12 30 52 39 21 4 2 7 32 62 13 3 3 6 0 0 0 0 0 0 0 0 0 0 0 0 0 0
94 88 59 46 84 172 174 212 167 137 69 38 15 28 30 8 3 0 0 0 18 62 34 30 14 0 0 0 0 0 0 0 0 0 0 0 0 0
60 97 84 64 107 282 157 138 165 168 83 42 30 30 17 14 11 17 0 0 0 10 12 6 2 0 0 0 0 0 0 0 0 0 0 0 0 0
95 277 166 310 290 204 211 240 209 171 127 63 31 0 0 0 13 0 0 0 0 0 0 0 0 0 0 1 0 2 0 0 0 0 0 0 0 0
310 427 81 519 492 321 295 263 283 229 77 5 2 11 0 2 4 0 0 0 0 0 0 0 0 0 0 0 0 0 0 0 0 0 0 0 0 0
361 435 339 372 259 177 89 74 105 218 126 41 6 0 0 0 10 0 0 0 0 0 0 0 0 0 0 0 0 0 0 0 0 0 0 0 0 0
426 389 176 37 202 161 192 110 118 105 73 30 0 4 0 4 27 27 1 0 0 0 0 0 0 0 0 0 0 0 0 0 0 0 0 0 0 0
125 165 85 54 176 173 177 149 23 22 92 141 70 25 12 12 35 0 0 0 0 0 0 0 0 0 0 0 0 0 0 0 0 0 0 0 0 0
5 94 120 164 418 80 32 1 22 66 0 0 0 0 0 0 0 0 0 0 0 0 0 0 0 0 0 0 0 0 0 0 0 0 0 0 0 0
8 40 58 221 0 0 0 0 16 0 0 0 0 0 0 0 0 2 11 7 1 0 0 0 0 0 0 0 0 0 0 0 0 0 0 0 0 0
13 6 0 0 0 0 0 0 0 0 0 0 0 0 0 0 0 0 0 0 0 0 0 0 0 0 0 1 11 2 0 0 0 0 0 1 7 1
0 0 0 0 0 0 0 0 0 0 0 0 0 0 0 0 0 0 0 0 0 0 0 0 0 0 12 36 12 0 0 0 0 0 2 19 21 15
0 0 0 0 0 0 0 0 0 0 0 0 0 0 0 0 0 0 0 0 0 0 0 0 1 35 29 9 2 1 0 0 0 1 17 20 18 17
0 0 0 0 0 0 0 0 0 0 0 0 0 0 0 0 0 0 0 0 0 0 0 0 3 11 34 22 0 0 0 0 0 3 9 16 15 18
0 0 0 0 0 0 0 0 3 7 7 0 0 0 0 0 0 0 0 0 0 0 0 0 0 0 0 0 2 0 0 0 0 9 13 20 15 10
0 0 0 0 0 0 0 0 0 0 0 0 0 0 0 0 0 0 0 0 0 0 0 0 0 0 3 0 0 0 3 2 6 12 15 23 20 5
0 0 0 0 0 0 0 0 0 0 0 0 0 0 0 0 0 0 0 0 0 0 0 0 0 1 4 0 0 0 4 0 9 15 17 19 6 6
0 0 0 0 0 0 0 0 0 0 0 0 0 0 0 0 0 0 0 0 0 0 0 0 0 2 0 0 0 0 0 0 0 15 24 13 13 7
0 0 0 0 0 0 0 0 0 0 0 0 0 0 0 0 0 0 0 0 0 0 0 0 0 0 4 0 0 0 0 0 0 11 32 20 12 14
0 0 0 0 0 0 0 0 0 0 0 0 0 0 0 0 0 0 0 0 0 0 0 0 0 0 0 0 0 0 0 0 2 8 9 13 8 8

GFSNE_con_sbcape_012.txt.gz
CAPE
0 0 0 0 0 0 0 0 0 0 0 0 0 0 0 0 0 0 0 0 0 0 0 0 0 0 4 6 10 8 0 0 0 0 0 0 0 0
0 0 0 0 0 0 0 0 0 0 0 0 0 0 0 0 0 9 0 4 1 0 0 0 0 0 5 19 24 18 14 0 6 1 3 0 0 0
5 0 0 0 0 0 0 0 0 0 0 0 0 0 0 0 0 0 0 0 1 1 3 5 0 0 0 4 13 17 11 13 21 17 22 20 16 0
0 0 0 1 11 1 0 21 27 0 0 1 0 1 7 6 0 0 0 3 0 0 0 0 0 0 0 0 0 0 0 0 0 0 7 5 14 18
0 0 0 1 0 0 4 8 54 48 17 7 18 6 9 1 0 0 0 0 0 5 0 0 0 0 0 0 0 0 0 0 0 0 0 0 0 0
0 0 0 1 11 2 57 71 107 87 82 84 60 17 3 0 0 0 0 0 0 0 0 0 0 0 0 0 0 0 0 0 0 0 0 0 0 0
1 0 0 29 31 9 70 69 62 100 116 89 26 0 0 0 0 0 0 0 0 0 0 0 0 0 0 0 0 0 0 0 0 0 0 0 0 0
0 0 25 177 136 183 73 30 59 119 85 5 0 0 0 0 0 0 0 0 0 0 0 0 0 0 0 0 0 0 0 0 0 0 0 0 0 0
0 0 45 100 79 79 47 6 28 77 99 1 1 0 0 0 0 0 0 0 0 0 0 0 0 0 0 0 0 0 0 0 0 0 0 0 0 0
15 35 172 152 42 12 11 23 17 13 30 9 4 5 0 0 0 0 0 0 0 0 0 0 0 0 0 0 0 0 0 0 0 0 0 0 0 0
21 142 233 129 2 21 23 16 12 14 18 16 5 0 0 0 0 0 0 0 0 0 0 0 0 0 0 0 0 0 0 0 0 0 0 0 0 0
12 18 3 1 1 4 26 4 5 11 0 0 0 0 0 0 0 0 0 0 0 0 0 0 0 0 0 0 0 0 0 0 0 0 0 0 0 0
0 0 1 1 0 7 2 0 0 0 0 0 0 0 0 0 0 0 0 0 0 0 0 0 0 0 0 0 0 0 0 0 0 0 0 0 0 0
0 0 0 0 0 0 0 0 0 0 0 0 0 0 0 0 0 0 0 0 0 0 0 0 0 0 0 0 0 0 0 0 0 0 0 0 0 0
0 0 0 0 1 1 0 0 0 0 0 0 0 0 0 0 0 0 0 0 0 0 0 0 0 0 0 0 3 0 0 0 0 0 0 0 0 0
0 0 0 0 0 0 0 0 0 0 0 0 0 0 0 0 0 0 0 0 0 0 0 0 0 0 0 0 0 0 0 0 0 0 0 0 2 0
0 0 0 0 0 0 0 0 0 0 0 0 0 0 0 0 0 0 0 0 0 0 0 0 0 0 0 0 0 0 0 0 0 0 4 11 4 5
0 0 0 0 0 0 0 0 0 0 0 0 0 0 0 0 0 0 0 0 0 0 0 0 0 0 0 0 0 0 0 0 0 3 8 9 8 9
0 0 0 0 0 0 0 0 0 0 0 0 0 0 0 0 0 0 0 0 0 0 0 0 0 0 0 0 0 0 0 0 2 5 1 13 19 9
0 0 0 0 0 0 0 0 0 0 0 0 0 0 0 0 0 0 0 0 0 0 0 0 0 0 0 0 0 0 0 0 0 3 9 11 15 29
0 0 0 0 0 0 0 0 0 0 0 0 0 0 0 0 0 0 0 0 0 0 0 0 0 0 0 0 0 0 0 0 0 2 11 20 17 17
0 0 0 0 0 0 0 0 0 0 0 0 0 0 0 0 0 0 0 0 0 0 0 0 0 0 0 0 0 0 0 0 0 1 17 14 12 18
0 0 0 0 0 0 0 0 0 0 0 0 0 0 0 0 0 0 0 0 0 0 0 0 0 0 0 0 0 0 0 0 0 0 1 13 13 15

GFSNE_con_sbcape_015.txt.gz
CAPE
0 0 0 0 0 0 0 0 0 0 0 0 0 0 0 0 0 0 0 0 0 0 0 0 0 0 14 27 39 33 34 38 22 3 0 0 0 0
0 0 0 0 0 0 0 0 0 0 0 0 0 0 0 0 0 0 0 0 0 0 0 0 0 1 19 36 38 42 45 51 53 41 30 25 22 9
0 0 0 0 0 0 0 0 0 0 0 0 0 0 0 0 0 0 0 0 0 0 0 0 0 0 6 25 31 25 23 27 28 43 54 46 33 28
0 0 0 0 0 0 0 0 0 0 0 0 0 0 0 0 0 0 0 0 0 0 0 0 0 0 0 0 0 0 0 0 0 0 2 19 34 25
0 0 0 0 0 0 0 0 0 0 0 0 0 0 0 0 0 0 0 0 0 0 0 0 0 0 0 0 0 0 0 0 0 0 0 0 0 0
0 0 0 0 0 0 0 0 0 0 0 0 14 0 0 0 0 0 0 0 0 0 0 0 0 0 0 0 0 0 0 0 0 0 0 0 0 0
0 0 0 0 0 0 0 0 0 0 0 12 29 0 0 0 0 0 0 0 0 0 0 0 0 0 0 0 0 0 0 0 0 0 0 0 0 0
1 0 0 0 0 1 2 4 0 0 0 3 0 1 0 0 0 0 0 0 0 0 0 0 0 0 0 0 0 0 0 0 0 0 0 0 0 0
42 13 0 0 3 20 22 0 0 0 0 0 0 0 0 0 0 0 0 0 0 0 0 0 0 0 0 0 0 0 0 0 0 0 0 0 0 0
64 12 0 0 0 14 12 7 0 0 1 0 0 0 0 0 0 0 0 0 0 0 0 0 0 0 0 0 0 0 0 0 0 0 0 0 0 0
84 0 0 0 10 2 1 2 0 0 7 3 0 0 0 0 0 0 0 1 0 0 0 0 0 0 0 0 0 0 0 0 0 0 0 0 0 0
0 0 1 21 6 0 0 0 0 0 0 0 0 0 0 0 0 0 0 0 0 0 0 0 0 0 0 0 0 0 0 0 0 0 0 0 0 0
0 0 0 0 0 0 0 0 0 0 0 0 0 0 0 0 0 0 0 0 0 0 0 0 0 0 0 0 0 0 0 0 0 0 0 0 0 0
0 0 0 0 0 0 1 0 0 0 0 0 0 0 0 0 0 0 0 0 0 0 0 0 0 0 0 0 0 0 0 0 0 0 0 0 0 0
0 0 0 1 1 1 0 0 0 0 0 0 0 0 0 0 0 0 0 0 0 0 0 0 0 0 0 0 0 0 0 0 0 0 0 0 0 0
0 0 1 1 0 0 0 0 0 0 0 0 0 0 0 0 0 0 0 0 0 0 0 0 0 0 0 0 0 0 0 0 0 0 0 0 0 0
0 0 0 0 0 0 0 0 0 0 0 0 0 0 0 0 0 0 0 0 0 0 0 0 0 0 0 0 0 0 0 0 0 0 0 0 0 0
0 0 0 0 0 0 0 0 0 0 0 0 0 0 0 0 0 0 0 0 0 0 0 0 0 0 0 0 0 0 0 0 0 0 0 0 0 0
0 0 0 0 0 0 0 0 0 0 0 0 0 0 0 0 0 0 0 0 0 0 0 0 0 0 0 0 0 0 0 0 0 0 0 0 4 2
0 0 0 0 0 0 0 0 0 0 0 0 0 0 0 0 0 0 0 0 0 0 0 0 0 0 0 0 0 0 0 0 0 0 0 0 0 12
0 0 0 0 0 0 0 0 0 0 0 0 0 0 0 0 0 0 0 0 0 0 0 0 0 0 0 0 0 0 0 0 0 0 0 6 6 6
0 0 0 0 0 0 0 0 0 0 0 0 0 0 0 0 0 0 0 0 0 0 0 0 0 0 0 0 0 0 0 0 0 0 0 12 11 9
0 0 0 0 0 0 0 0 0 0 0 0 0 0 0 0 0 0 0 0 0 0 0 0 0 0 0 0 0 0 0 0 0 0 0 0 14 10

GFSNE_con_sbcape_021.txt.gz
CAPE
289 326 208 151 21 0 0 0 0 0 0 7 0 24 59 81 43 31 69 15 25 12 0 0 0 0 0 0 1 13 38 49 41 35 47 72 10 0
176 306 219 108 110 39 0 0 0 2 0 0 0 52 72 59 71 184 143 0 0 0 0 0 0 0 0 11 20 31 45 61 73 78 72 76 83 56
279 303 323 302 95 59 54 52 50 2 4 12 7 79 202 241 63 146 65 175 91 0 0 0 0 0 0 0 5 9 22 27 31 40 46 55 74 70
642 342 235 124 231 159 50 155 58 78 35 253 118 144 306 313 387 532 247 9 84 4 0 0 0 0 0 0 0 0 0 0 0 0 0 0 0 1
832 528 409 276 139 35 51 38 27 123 118 80 88 115 115 139 271 415 464 188 39 0 0 0 0 0 0 0 0 0 0 0 0 0 0 0 0 0
1073 643 386 207 242 197 217 205 152 139 183 175 81 96 189 271 224 194 148 132 44 1 0 0 0 0 0 0 0 0 0 0 0 0 0 0 0 0
1156 752 439 314 78 195 221 300 290 234 147 118 88 67 68 228 296 139 147 132 103 130 92 118 147 184 151 0 0 0 0 0 0 0 0 0 0 0
1593 1051 607 80 3 0 0 38 268 308 334 225 220 203 651 573 223 158 150 176 168 178 266 168 398 441 411 410 0 0 0 0 0 0 0 0 0 0
1802 1459 919 524 145 205 1 0 0 0 62 718 641 495 349 489 295 202 204 211 234 275 336 296 363 431 207 71 0 0 0 0 0 0 0 0 0 0
1820 1609 1290 1054 680 525 564 269 176 211 54 62 537 771 449 389 318 225 374 343 231 214 301 93 54 106 33 0 0 0 0 0 0 0 0 0 0 0
1822 1574 1370 1334 880 71 503 754 748 756 103 0 18 0 0 0 37 113 66 50 108 41 44 19 3 4 0 0 0 0 0 0 0 0 0 0 0 0
1711 1488 448 1053 157 0 370 910 853 703 305 0 1 0 0 0 0 38 0 0 0 0 13 0 0 0 0 0 0 0 0 0 0 0 0 0 0 0
1333 1125 1392 11 67 0 29 1078 631 645 28 17 0 1 0 0 0 0 0 0 0 0 2 0 0 0 0 0 0 0 0 0 0 0 0 0 0 0
1367 720 473 1 0 0 0 308 2 7 40 2 0 0 0 0 0 0 0 0 0 0 0 0 0 0 0 0 0 0 0 0 0 0 0 0 0 0
678 422 218 0 1 0 0 0 0 59 5 0 0 0 0 0 0 0 0 0 0 0 0 0 0 0 0 0 0 0 0 0 0 0 7 14 5 0
2 2 3 2 0 3 0 0 6 18 0 0 0 0 0 0 0 0 0 0 0 0 0 0 0 0 0 0 0 0 0 0 0 6 35 14 1 0
1 2 2 6 1 1 0 1 1 0 0 0 0 0 0 0 0 0 0 0 0 0 0 0 0 0 0 0 0 0 0 0 0 13 18 1 0 0
0 0 1 3 0 0 0 0 0 0 0 0 0 0 0 0 0 0 0 0 0 0 0 0 0 0 0 0 0 0 0 0 0 7 7 0 0 0
0 2 2 0 0 1 0 0 0 0 0 0 0 0 0 0 0 0 0 0 0 0 0 0 0 0 0 0 0 0 0 0 1 0 0 0 0 0
0 0 0 0 0 0 0 0 0 0 0 0 0 0 0 0 0 0 0 0 0 0 0 0 0 0 0 0 0 0 0 0 0 0 0 0 0 0
5 13 42 35 29 4 0 0 0 0 0 0 0 0 0 0 0 0 0 0 0 0 0 0 0 0 0 0 0 0 0 0 0 0 0 0 0 0
207 137 106 54 33 0 0 0 0 0 0 0 0 0 0 0 0 0 0 0 0 0 0 0 0 0 0 0 0 0 0 0 0 0 0 0 0 0
233 242 56 71 0 0 0 0 0 0 0 0 0 0 0 0 0 0 0 0 0 0 0 0 0 0 0 0 0 0 0 0 0 0 0 0 0 0

GFSNE_con_sbcape_024.txt.gz
CAPE
1186 672 203 37 128 46 19 5 0 1 10 60 4 0 3 1 44 53 30 171 33 10 0 0 0 0 4 21 34 64 141 181 213 197 190 227 61 8
1039 679 549 44 120 67 13 0 0 0 0 0 1 6 0 5 46 49 86 41 22 0 2 0 0 0 0 0 0 44 93 165 209 223 198 200 245 127
1309 908 831 287 48 29 32 0 0 0 0 0 0 64 263 408 84 57 178 194 146 7 0 0 0 0 0 0 1 0 0 3 9 10 12 36 69 76
1887 1337 1005 434 510 527 116 461 253 107 0 133 37 43 539 427 679 666 455 133 135 35 0 0 0 0 0 0 0 0 0 0 0 0 0 0 0 0
2202 1862 1419 735 780 347 272 138 81 58 267 18 37 182 118 274 578 777 624 609 265 21 0 0 0 0 0 0 0 0 0 0 0 0 0 0 0 0
2555 2222 1742 1132 1015 669 374 435 179 128 405 113 12 11 163 311 179 65 458 696 395 110 25 0 5 0 0 0 0 0 0 0 0 0 0 0 0 0
2996 2558 2157 1340 563 574 392 989 1286 417 33 158 81 31 39 113 279 82 93 91 256 381 247 163 151 227 217 0 61 3 0 0 0 0 0 0 0 0
3482 2988 2427 998 465 108 86 162 931 981 1058 175 143 353 457 383 359 206 155 112 127 280 368 334 263 331 475 490 0 0 0 0 0 0 0 0 0 0
3739 3204 2651 1980 925 1094 68 13 65 174 221 963 936 765 681 698 1041 718 421 341 273 303 586 394 275 263 219 114 0 0 0 0 0 0 0 0 0 0
3122 3093 3158 2809 1908 1403 1406 476 342 371 307 199 490 1015 1242 881 832 743 586 409 521 453 445 229 71 13 10 5 0 0 0 0 0 0 0 0 0 0
3386 3195 3291 3258 2339 611 1579 1617 974 964 129 78 1 1 0 0 138 335 219 146 154 94 181 25 6 8 1 0 0 0 0 0 0 0 0 0 0 0
3550 3896 1971 2710 2060 226 1319 1895 1856 1385 933 684 390 27 1 4 0 134 115 124 29 0 22 0 0 0 0 0 0 0 0 0 0 0 0 0 0 0
2301 2638 2919 1148 26 14 405 1726 1801 1302 775 733 620 369 139 52 0 2 3 0 0 0 2 0 0 0 0 0 0 0 0 0 0 0 0 0 0 0
2716 2573 2505 59 0 0 0 561 612 392 949 396 365 176 71 7 4 0 0 0 0 0 0 0 0 0 0 0 0 0 0 0 0 0 1 0 0 0
2520 2073 1226 0 1 1 0 11 27 333 501 459 584 335 80 11 0 0 0 0 0 0 0 0 0 0 0 0 0 0 0 0 0 0 0 3 16 26
7 0 0 0 0 1 0 0 324 460 714 507 471 223 18 0 0 0 0 0 0 0 0 0 0 0 0 0 0 0 0 0 0 0 0 5 15 8
0 1 2 4 4 4 6 4 130 220 290 505 284 74 2 0 0 0 0 0 0 0 0 0 0 0 0 0 0 0 0 0 0 0 9 4 4 1
6 4 9 32 13 9 34 39 56 95 171 229 155 3 0 0 0 1 0 0 0 0 0 0 0 0 0 5 0 0 0 0 0 5 9 2 0 0
156 55 68 9 8 2 7 16 55 106 284 114 13 4 0 0 0 1 0 0 0 0 0 0 0 0 0 0 0 0 0 0 0 1 0 0 0 0
234 60 54 10 7 7 9 24 58 110 95 49 11 2 0 2 9 0 0 0 0 0 0 0 0 0 0 0 0 0 0 0 0 0 0 0 0 0
143 76 93 58 27 31 51 109 166 137 66 49 3 1 6 3 1 0 0 0 0 0 0 0 0 0 0 0 0 0 0 0 0 0 0 0 0 0
73 119 90 82 161 177 88 68 60 40 40 3 0 5 3 1 1 0 0 0 0 0 0 0 0 0 0 0 0 0 0 0 0 0 0 0 0 0
84 153 198 197 418 382 78 62 7 15 3 0 5 4 2 0 0 0 0 0 0 0 0 0 0 0 0 0 0 0 0 0 0 0 0 0 0 0

GFSNE_con_sbcape_027.txt.gz
CAPE
2290 1847 502 32 65 84 39 18 4 52 440 175 0 188 9 14 33 0 20 113 145 8 0 0 2 19 43 47 27 27 75 236 411 486 533 606 410 275
1716 2607 1782 96 122 82 23 12 0 0 0 40 23 115 41 16 33 0 9 47 93 0 0 0 0 0 0 3 7 36 108 236 375 493 554 592 570 412
3003 2842 2248 2084 83 56 48 20 7 0 0 0 10 663 995 265 90 41 68 593 53 0 0 0 0 0 0 0 7 12 16 50 93 96 87 115 156 161
2977 2882 2053 1022 1924 1710 171 1502 319 564 0 1186 774 276 989 1359 1357 1637 430 73 385 12 1 0 0 0 0 0 0 0 0 0 0 0 0 0 0 0
3400 3277 2546 2247 2252 500 685 499 172 440 486 109 62 100 174 468 1223 1328 1646 1142 417 46 0 0 0 0 0 0 0 0 0 0 0 0 0 0 0 0
3677 3563 3229 2659 2321 2122 1618 1508 1236 627 492 215 58 3 80 858 425 401 899 747 657 257 59 11 2 0 0 0 0 0 0 0 0 0 0 0 0 0
3822 3849 3640 2823 1792 1824 1117 1399 1205 866 51 141 170 83 30 461 869 507 407 792 716 640 646 487 363 29 31 0 14 2 0 0 0 0 0 0 0 0
4206 4265 3999 2185 1263 843 665 690 1099 1741 1129 203 124 292 1700 727 352 287 461 350 656 515 504 495 773 834 421 181 5 35 0 0 0 0 0 0 0 0
4405 4295 3918 2750 2078 1893 329 220 25 573 726 1667 1348 1292 1424 1567 1508 754 1441 860 335 773 975 331 319 138 9 0 0 0 0 0 0 0 0 0 0 0
4197 4263 4300 3535 3063 2671 2278 1373 1122 893 1010 566 1350 1723 1766 1701 1093 1214 1390 1151 676 489 1021 211 103 6 0 0 0 0 0 0 0 0 0 0 0 0
4132 4177 4078 4140 3160 1580 2721 2600 1819 1249 478 343 154 254 110 299 528 1001 287 252 94 184 820 114 10 0 0 0 0 0 0 0 0 0 0 0 0 0
3662 4175 2630 3486 2742 698 2470 2867 2565 1751 1275 469 10 10 20 26 0 1062 313 327 243 258 65 11 2 0 0 0 0 0 0 0 0 0 0 0 0 0
3263 3443 3769 1717 1296 72 1088 2783 2395 1999 1185 1207 375 576 493 530 244 58 302 258 47 9 2 0 0 0 0 0 0 0 0 0 0 0 0 0 0 0
3209 3152 3303 1272 80 0 66 1874 1646 1671 1896 1049 488 406 321 346 314 233 243 228 8 2 0 0 0 0 0 0 0 0 0 0 0 0 0 0 0 0
3179 2937 2388 261 0 0 6 166 198 1535 1393 503 542 396 272 186 383 134 107 8 0 0 0 0 0 0 0 0 0 0 0 0 0 0 0 0 0 0
1772 2131 239 42 233 1059 0 0 603 1309 1023 387 419 501 440 87 5 1 0 0 0 0 0 0 0 0 0 0 0 0 0 0 0 0 0 0 0 0
1434 908 94 11 12 0 23 28 199 425 395 485 424 501 145 0 2 24 0 1 0 0 0 0 0 0 0 0 0 0 0 0 0 0 0 0 0 0
864 430 195 51 3 0 1 11 97 125 110 198 121 72 32 0 0 3 10 1 3 0 0 0 0 0 0 0 0 0 0 0 0 0 0 0 0 0
1046 386 295 147 92 4 13 90 23 0 62 103 74 277 68 49 6 14 20 5 3 0 0 0 0 0 0 0 0 0 0 0 0 0 0 0 0 0
903 725 274 103 57 4 83 123 22 9 42 179 316 226 31 24 14 11 12 28 0 0 0 0 0 0 0 0 0 0 0 0 0 0 0 0 0 0
248 630 87 43 4 4 68 63 6 52 95 189 90 99 102 25 11 9 7 0 1 0 0 0 0 0 0 0 0 0 0 0 0 0 0 0 0 0
6 40 42 19 2 3 42 79 58 161 71 157 41 80 22 2 2 14 1 0 0 0 0 0 0 0 0 0 0 0 0 0 0 0 0 0 0 0
6 2 1 3 3 20 27 123 111 83 62 88 42 15 2 6 11 6 0 0 0 0 0 0 0 0 0 0 0 0 0 0 0 0 0 0 0 0

GFSNE_con_sbcape_030.txt.gz
CAPE
2540 2628 1753 794 1065 936 810 611 573 460 320 631 171 70 421 3 29 0 18 0 0 0 0 0 0 0 0 0 22 31 31 63 190 346 476 726 671 721
2347 2154 1754 420 511 1043 759 648 514 304 235 152 358 33 21 241 32 193 146 6 0 0 0 0 0 0 0 0 0 1 8 48 137 203 341 530 663 639
2706 2576 1767 1115 910 849 649 765 611 507 125 231 780 699 522 143 1 65 57 20 0 0 0 0 0 0 0 0 0 0 0 0 0 5 5 62 169 209
2774 2675 2067 1353 1531 1582 1620 686 679 803 468 866 935 818 647 648 993 953 296 2 174 37 0 0 0 0 0 0 0 0 0 0 0 0 0 0 0 0
3071 2633 2307 1773 1606 858 1088 1399 892 1289 1574 554 722 1021 856 924 798 988 1186 805 582 86 0 0 0 0 0 0 0 0 0 0 0 0 0 0 0 0
3252 3055 2653 1978 1752 1622 1197 732 1369 638 740 1007 468 316 996 763 774 449 721 766 652 310 4 0 0 0 0 0 0 0 0 0 0 0 0 0 0 0
3005 3274 3007 2460 1858 1792 1122 1405 590 1512 904 468 477 592 480 790 582 473 567 418 637 468 133 13 5 2 0 0 0 0 0 0 0 0 0 0 0 0
3269 3116 3185 2547 1931 1387 1283 881 1133 660 701 413 391 349 449 646 818 435 389 376 158 738 318 324 388 291 0 13 11 3 0 0 0 0 0 0 0 0
3318 3353 3278 2946 2349 1768 789 840 628 716 655 576 401 512 933 1096 901 1181 924 790 433 554 232 141 207 253 8 0 0 0 0 0 0 0 0 0 0 0
3229 3301 3280 3137 2908 2407 1663 992 871 582 378 664 832 663 1275 1599 1630 1348 955 894 694 470 356 82 203 217 8 0 0 0 0 0 0 0 0 0 0 0
3250 3330 3345 3318 3111 1804 2065 1428 1153 959 646 427 549 888 625 297 1158 574 542 377 285 216 242 146 148 119 0 0 0 0 0 0 0 0 0 0 0 0
2904 3228 2631 3261 3172 807 2120 2141 1738 1305 937 384 138 6 0 86 214 641 340 189 165 140 165 152 59 0 0 0 0 0 0 0 0 0 0 0 0 0
2716 2786 2957 1700 2109 541 1094 2395 2236 1906 1126 727 230 113 73 89 15 169 584 249 169 139 7 22 0 0 0 0 0 0 0 0 0 0 0 0 0 0
3201 2785 2759 2744 556 4 0 1775 1871 1857 1566 782 224 59 70 75 146 92 113 176 122 37 0 0 0 0 0 0 0 0 0 0 0 0 0 0 0 0
3358 3188 981 1649 1066 0 0 252 494 1558 1770 1003 584 194 142 99 110 69 30 112 11 0 0 0 0 0 0 0 0 0 0 0 0 0 0 0 0 0
1314 2069 2371 2199 0 434 19 0 1073 1819 1739 935 611 353 214 126 40 47 23 3 0 0 0 0 0 0 0 0 0 0 0 0 0 0 0 0 0 0
2072 2758 2691 2121 2404 630 744 228 919 1646 1444 992 450 205 84 52 0 0 0 0 0 0 0 0 0 0 0 0 0 0 0 0 0 0 0 0 0 0
773 2330 2576 2444 1421 1507 1142 522 655 1049 1157 678 285 152 22 2 0 0 0 0 0 0 0 0 0 0 0 0 0 0 0 0 0 0 0 0 0 0
1799 1684 2095 2289 1650 1158 987 592 497 695 689 320 139 76 18 5 0 0 0 0 0 0 0 0 0 0 0 0 0 0 0 0 0 0 0 0 0 0
294 1351 1572 1480 1324 860 603 508 488 298 184 74 0 1 11 0 0 0 0 0 0 0 0 0 0 0 0 0 0 0 0 0 0 0 0 0 0 0
3 5 2 8 208 578 504 301 241 142 71 1 0 2 6 2 0 0 0 0 0 0 0 0 0 0 0 0 0 0 0 0 0 0 0 0 0 0
4 6 7 9 4 2 19 93 45 19 1 0 0 5 23 0 0 0 0 0 0 0 0 0 0 0 0 0 0 0 0 0 0 0 0 0 0 0
37 45 0 0 0 7 1 2 2 4 5 7 33 197 34 0 0 0 0 0 0 0 0 0 0 0 0 0 0 0 0 0 0 0 0 0 0 0

GFSNE_con_sbcape_033.txt.gz
CAPE
1096 1344 448 60 34 31 1 0 0 0 0 0 0 0 0 0 0 0 0 0 0 0 0 0 0 0 0 0 0 0 7 14 0 41 123 176 240 410
1360 1294 1120 466 67 51 40 0 0 0 0 0 0 0 0 0 3 0 0 0 0 0 0 0 0 0 0 0 0 0 0 0 0 9 9 3 26 86
1680 1410 1167 752 82 36 47 66 0 0 0 0 0 0 0 0 0 0 0 0 0 0 0 0 0 0 0 0 0 0 0 0 0 0 0 0 0 0
1964 1514 1283 957 372 156 533 6 22 10 0 0 207 189 0 0 0 0 0 0 0 0 0 0 0 0 0 0 0 0 0 0 0 0 0 0 0 0
2052 1886 1615 1088 707 426 432 507 53 5 93 0 230 102 61 113 64 30 14 2 0 67 10 0 0 0 0 0 0 0 0 0 0 0 0 0 0 0
2183 2177 1927 1406 1102 762 422 274 391 276 393 106 0 80 315 323 62 164 254 320 220 201 0 0 0 0 0 0 0 0 0 0 0 0 0 0 0 0
1883 2309 2278 1885 1384 1058 916 383 172 441 173 217 159 25 5 395 465 183 45 96 220 117 3 0 0 0 0 0 0 0 0 0 0 0 0 0 0 0
2505 2131 2476 1989 1525 900 838 705 391 62 520 216 126 217 84 2 228 237 213 164 187 12 46 4 0 0 0 0 0 0 0 0 0 0 0 0 0 0
2596 2605 2370 2553 2038 1873 584 617 443 315 27 333 204 69 50 56 124 174 158 71 6 0 5 6 2 1 4 14 0 0 0 0 0 0 0 0 0 0
2724 2711 2657 2583 2520 2291 1972 1049 918 498 288 28 111 90 19 26 97 184 93 42 34 18 0 0 1 2 0 0 0 0 0 0 0 0 0 0 0 0
2689 2674 2806 2770 2687 1716 2280 1957 1266 1124 414 140 85 53 122 675 568 344 161 54 11 26 0 4 10 2 0 0 0 0 0 0 0 0 0 0 0 0
2712 2628 2380 2610 2826 1506 1909 2276 1902 1405 954 539 5 1 49 69 381 221 88 24 0 15 47 16 33 16 0 0 0 0 0 0 0 0 0 0 0 0
2835 2677 2528 2140 1122 1214 326 2529 2259 1934 1096 737 551 246 53 77 17 90 77 106 7 0 6 61 5 0 0 0 0 0 0 0 0 0 0 0 0 0
3308 3184 2884 2336 1409 583 0 945 1414 1285 1644 1007 842 472 183 29 46 95 125 32 11 0 0 4 0 0 0 0 0 0 0 0 0 0 0 0 0 0
3422 3343 3095 2670 1581 13 0 100 5 1080 2027 1739 1167 975 335 139 43 7 42 2 0 0 0 0 0 0 0 0 0 0 0 0 0 0 0 0 0 0
751 1873 2104 1800 1962 1198 74 1 16 1496 2195 2257 1804 1292 507 33 7 10 0 28 0 0 0 0 0 0 0 0 0 0 0 0 0 0 0 0 0 0
512 1338 1979 2528 2320 2532 917 684 12 170 1336 1880 2108 1618 408 0 0 14 13 1 0 0 0 0 0 0 0 0 0 0 0 0 0 0 0 0 0 0
0 1117 1501 2152 2670 2795 2656 2539 1330 316 526 1143 1523 1431 432 13 8 1 0 0 0 0 0 0 0 0 0 0 0 0 0 0 0 0 0 0 0 0
1 855 1096 1358 2050 2393 2350 2150 2171 1369 803 666 1234 1392 453 174 0 0 0 0 1 0 0 0 0 0 0 0 0 0 0 0 0 0 0 0 0 0
0 0 0 0 0 0 0 0 3 472 997 843 858 1114 745 128 0 0 0 0 0 0 0 0 0 0 0 0 0 0 0 0 0 0 0 0 0 0
0 0 0 0 0 0 0 0 1 2 4 19 126 581 628 13 0 0 0 0 0 0 0 0 0 0 0 0 0 0 0 0 0 0 0 0 0 0
0 0 0 0 1 0 0 0 0 0 1 6 8 9 17 6 2 1 1 0 0 0 0 0 0 0 0 0 0 0 0 0 0 0 0 0 0 0
0 0 0 0 0 0 0 0 9 0 0 0 0 3 0 1 1 1 2 1 0 0 0 0 0 0 0 0 0 0 0 0 0 0 0 0 0 0

GFSNE_con_sbcape_036.txt.gz
CAPE
565 828 88 1 4 17 0 0 0 0 0 0 0 0 0 0 0 0 0 0 0 0 0 0 0 0 0 0 0 0 0 0 0 0 0 15 0 0
917 598 632 275 26 0 0 0 0 0 0 0 0 0 0 0 0 0 0 0 0 0 0 0 0 0 0 0 0 0 0 0 0 0 0 0 0 0
1429 972 646 479 252 6 0 0 0 0 0 0 0 0 0 0 0 0 0 0 0 0 0 0 0 0 0 0 0 0 0 0 0 0 0 0 0 0
1499 1348 1071 746 516 75 0 0 0 0 0 0 0 19 0 0 0 0 0 0 0 0 0 0 0 0 0 0 0 0 0 0 0 0 0 0 0 0
1581 1521 1470 1029 976 540 32 29 4 0 0 0 0 7 0 0 0 0 0 0 0 0 0 0 0 0 0 0 0 0 0 0 0 0 0 0 0 0
1608 1648 1594 1400 1321 977 376 87 30 51 0 0 0 0 0 0 0 0 0 0 0 0 2 6 0 0 0 0 0 0 0 0 0 0 0 0 0 0
1632 1834 1774 1664 1458 1276 957 512 60 49 14 0 0 0 2 49 49 2 0 0 12 3 1 0 0 0 0 0 0 0 0 0 0 0 0 0 0 0
1983 1730 1712 1771 1432 934 685 911 420 267 83 82 64 8 6 0 16 16 3 0 7 0 31 18 0 0 0 0 0 0 0 0 0 0 0 0 0 0
2057 2022 2001 1873 1699 1812 367 165 288 59 280 47 85 31 4 0 0 2 52 15 29 2 4 33 0 0 0 0 0 0 0 0 0 0 0 0 0 0
2258 2225 2173 2201 2056 1922 2067 952 606 701 96 29 3 30 19 10 0 0 12 57 2 0 0 7 0 1 0 0 2 0 0 0 0 0 0 0 0 0
2517 2348 2402 2396 2303 1520 1956 2183 1623 1120 888 81 65 9 1 0 0 0 4 6 25 27 0 2 0 0 0 0 0 0 0 0 0 0 0 0 0 0
2510 2650 2076 2205 2567 1673 1417 2150 2272 2200 1560 1371 184 9 1 0 0 3 40 6 6 0 0 0 0 0 0 0 0 0 0 0 0 0 0 0 0 0
2715 2761 2724 2259 1160 1279 421 2389 2496 2493 2244 1546 1376 808 387 192 4 32 87 42 10 1 0 0 0 0 0 0 0 0 0 0 0 0 0 0 0 0
3228 3241 3111 2816 1700 270 0 489 1163 875 2132 2385 1626 1367 1186 521 278 101 74 68 64 20 0 0 0 0 0 0 0 0 0 0 0 0 0 0 0 0
3236 3396 3214 2834 1369 36 0 10 0 551 1690 2335 2413 2096 1323 1078 543 181 88 98 57 43 0 0 0 0 0 0 0 0 0 0 0 0 0 0 0 0
0 567 1122 1491 1427 1108 511 65 0 172 1010 1665 2075 2432 2157 1397 781 271 24 10 7 6 0 0 0 0 0 0 0 0 0 0 0 0 0 0 0 0
118 583 905 1256 1761 2300 2446 2341 1459 376 142 420 1030 1635 1968 2037 992 280 24 0 5 4 0 0 0 0 0 0 0 0 0 0 0 0 0 0 0 0
0 132 609 906 1291 1679 2143 2306 1990 1387 1033 833 825 1053 1232 1536 1572 464 34 0 0 2 0 0 2 0 0 0 0 0 0 0 0 0 0 0 0 0
0 0 0 5 9 0 0 0 0 0 0 0 4 190 586 914 747 640 158 0 0 1 0 0 2 0 0 0 0 0 0 0 0 0 0 0 0 0
0 0 0 1 0 0 0 0 0 0 0 0 0 0 5 30 24 14 24 238 84 13 3 1 2 0 0 0 0 0 0 0 0 0 0 0 0 0
0 0 0 0 0 0 0 0 0 0 0 0 1 1 0 0 1 1 5 0 10 36 4 1 0 0 0 0 0 0 0 0 0 0 0 0 0 0
0 0 0 0 0 0 0 0 0 0 0 0 0 0 0 0 0 0 0 0 0 1 1 1 1 0 0 0 0 0 0 0 0 0 0 0 0 0
2 2 1 0 0 0 1 1 0 0 0 0 0 0 1 1 0 1 1 2 2 0 0 1 2 0 0 0 0 0 0 0 0 0 0 0 0 0

GFSNE_con_sbcape_042.txt.gz
CAPE
544 577 176 28 0 0 0 0 28 27 18 37 56 0 0 0 164 199 92 0 0 0 0 0 0 0 0 0 0 0 0 0 0 0 0 0 0 0
910 637 558 378 70 0 2 0 0 0 12 0 21 0 0 0 0 142 41 0 0 0 0 0 0 0 0 0 0 0 0 0 0 0 0 0 0 0
1025 1095 1070 517 568 235 4 0 0 0 0 5 0 0 9 0 13 87 1 16 0 0 0 0 0 0 0 0 0 0 0 0 0 0 0 0 0 0
1121 1139 1321 1080 820 592 214 92 1 0 0 36 0 0 0 2 3 2 12 0 0 0 0 0 0 0 0 0 0 0 0 0 0 0 0 0 0 0
1402 1305 1378 1317 1446 1175 789 460 67 1 0 0 6 0 0 0 0 0 0 2 0 0 0 0 0 0 0 0 0 0 0 0 0 0 0 0 0 0
1670 1569 1530 1531 1554 1720 1199 1024 827 430 43 12 8 0 0 0 0 19 9 0 0 0 0 0 0 0 0 0 0 0 0 0 0 0 0 0 0 0
1539 1685 1771 1655 1401 1496 1705 1632 1255 973 1007 428 452 79 13 10 8 91 0 47 70 1 0 0 0 0 0 0 0 0 0 0 0 0 0 0 0 0
1627 1566 1625 1262 1130 854 659 964 1454 1350 1330 1200 1017 1075 1042 530 114 41 10 19 123 45 0 1 0 0 2 7 4 0 0 0 0 0 0 0 0 0
1847 1823 1775 1689 1319 1791 1039 184 161 141 686 1820 1610 1354 1268 1327 908 336 63 67 204 204 0 0 34 0 5 0 0 0 0 0 0 0 0 0 0 0
1844 1924 1964 2061 1983 1820 1979 2064 1910 1482 664 399 1090 1698 1986 1929 1469 946 607 337 70 95 8 0 38 0 0 0 0 0 0 0 0 0 0 0 0 0
1969 2061 2056 2069 1870 1341 1848 2094 2190 2242 1680 824 440 555 303 140 288 1096 601 0 3 67 151 0 9 0 0 0 0 0 0 0 0 0 0 0 0 0
1992 2175 1745 1902 2016 1579 1190 2137 2314 2424 2362 2254 1652 242 49 113 4 0 308 582 444 176 422 0 1 1 2 0 0 0 0 0 0 0 0 0 0 0
1999 2141 2325 1919 1099 993 412 2063 2250 2307 2409 2114 2422 2457 2190 1806 1567 1127 287 69 447 553 854 105 69 2 2 4 0 0 0 0 0 0 0 0 0 0
2297 2400 2432 2127 1338 122 0 75 624 482 1528 2007 2222 2411 2586 2629 2595 1885 1416 942 238 896 1373 567 74 59 1 2 0 0 0 0 0 0 0 0 0 0
2340 2552 2634 2680 966 47 0 0 0 0 123 683 1261 1778 2044 2182 2350 2368 2421 2244 1327 842 125 253 543 426 108 60 92 5 0 3 1 0 0 0 0 0
4 711 701 876 931 1218 935 483 1 17 393 888 1182 1353 1454 1300 972 1052 1021 700 506 574 838 730 120 118 217 294 135 13 0 0 1 4 0 0 0 0
535 658 898 1179 1339 1165 1153 1415 1380 547 454 477 342 259 150 66 52 9 12 10 6 11 9 10 187 409 281 274 273 29 0 1 0 0 0 0 0 0
535 715 519 421 391 194 58 4 1 0 0 0 0 0 2 4 8 11 11 10 8 7 8 6 10 13 12 88 107 102 44 0 0 0 0 0 0 0
3 0 0 0 0 1 0 0 0 0 1 1 1 1 3 3 6 1 3 6 0 0 0 7 2 10 16 13 0 0 1 0 0 1 0 0 0 0
0 2 3 3 3 1 1 1 1 2 3 2 2 1 0 2 1 2 6 9 11 5 2 1 1 0 2 4 4 1 0 0 0 0 0 1 1 0
4 3 2 2 2 3 4 5 3 2 3 3 3 1 0 1 4 2 3 0 2 3 1 1 3 0 12 3 2 1 1 0 0 0 0 0 0 0
1 2 2 2 2 2 3 4 2 1 3 5 6 1 0 1 6 2 1 1 3 2 7 10 6 1 3 6 4 1 0 0 0 0 0 0 0 0
3 3 4 3 3 3 3 4 4 6 9 2 2 2 2 2 6 11 11 1 4 1 4 5 4 3 2 0 0 1 0 0 0 0 0 0 0 0

GFSNE_con_sbcape_045.txt.gz
CAPE
2161 2213 1917 1420 914 514 257 276 463 559 442 589 515 813 700 746 844 996 988 564 1 0 0 0 0 0 0 0 0 0 0 0 0 0 0 0 0 0
2063 2182 2167 1526 1475 1124 842 624 497 516 584 499 575 689 725 452 559 649 848 503 147 0 0 0 0 0 0 0 0 0 0 0 0 0 0 0 0 0
2466 2300 2389 2413 1975 1699 1371 1092 898 643 600 546 663 557 909 1102 819 631 647 738 525 0 0 0 0 0 0 0 0 0 0 0 0 0 0 0 0 0
2597 2608 2458 2148 2449 2451 2150 2041 1507 1351 886 1646 1193 747 977 1010 1202 1170 826 400 438 152 0 0 0 0 0 0 0 0 0 0 0 0 0 0 0 0
2485 2695 2727 2619 2614 2278 2427 2238 2118 2023 1655 1281 1297 987 743 489 794 996 799 880 554 154 0 0 0 0 0 0 0 0 0 0 0 0 0 0 0 0
2561 2612 2709 2798 2855 2919 2779 2772 2652 2489 2451 1985 1695 1581 1574 1700 1122 854 848 802 661 375 136 5 2 0 0 0 0 0 0 0 0 0 0 0 0 0
2677 2737 2771 2584 2221 2402 2687 3236 2859 2604 2288 2041 1861 1730 1626 1567 1643 1333 1270 1246 1391 1058 716 600 487 248 49 0 0 0 0 0 0 0 0 0 0 0
2824 2806 2815 2073 1774 1054 748 1047 1925 3437 2902 2574 2433 2534 3593 2846 2462 2260 2057 1903 2029 1944 1570 847 529 535 421 269 0 0 0 0 0 0 0 0 0 0
2897 2954 2895 2495 2201 2657 1808 284 199 226 710 2867 3445 3551 3826 3350 3543 3310 3439 3065 2588 2324 1998 1821 1349 1393 682 524 0 0 0 0 0 0 0 0 0 0
3092 2898 3199 3240 2998 2579 2726 2738 2833 2951 2281 1571 2083 2685 3381 3487 4017 3513 3177 2481 1864 1858 2114 1325 1406 1591 1566 1099 170 0 0 0 0 0 0 0 0 0
2997 2970 3002 3043 2510 2206 2591 2726 2966 3090 2486 2109 1746 1473 1126 687 368 1055 1293 1652 1501 1606 2359 1340 1342 1632 1636 1233 907 3 0 0 0 0 0 0 0 0
2899 3132 2071 2018 2309 1805 2221 2600 3074 3148 3286 3570 3591 1779 581 800 15 8 744 966 1040 1438 2161 2153 1287 603 593 1190 931 569 371 0 0 0 0 0 0 0
2294 2388 2550 1686 1241 781 494 2854 3192 3238 3201 3039 2990 3009 3130 3072 3307 3109 1558 1037 1557 1446 1916 1257 1183 1186 983 647 902 729 533 466 1 0 0 0 0 0
2859 2960 3151 2443 1652 400 0 446 550 319 1661 1908 2225 2405 2453 2477 2809 2681 2302 1869 1260 1313 1642 1886 1381 1139 989 636 645 593 462 26 54 0 6 0 0 0
2782 2842 2525 2217 1588 423 0 16 0 0 219 709 1185 1387 1719 2247 2392 2059 2015 1289 1104 892 623 1062 1742 1017 1058 719 394 336 255 241 3 5 1 0 0 0
223 1502 1804 1647 1527 1692 961 335 2 2 133 651 1223 1570 1521 1367 942 423 188 119 30 0 0 0 37 46 29 22 40 27 96 164 6 4 1 2 1 0
1350 1935 2019 2007 1839 1966 1543 1383 1572 841 619 930 1117 793 485 154 24 0 0 0 0 0 0 0 0 3 6 20 38 67 60 69 87 17 2 1 2 0
1023 1718 1648 1309 1147 948 647 482 457 209 338 175 174 42 0 0 0 0 0 2 3 3 2 0 1 4 4 0 0 2 1 11 19 5 1 0 0 1
842 333 19 3 0 0 32 110 160 20 1 1 5 3 0 0 0 3 6 4 3 3 1 1 4 11 3 6 7 0 4 10 5 1 3 1 2 5
71 0 2 1 3 38 13 10 10 26 7 6 10 9 6 4 8 14 13 3 5 4 1 1 7 8 11 7 8 6 0 7 5 1 0 0 0 0
7 6 10 12 9 11 9 10 9 10 7 7 3 17 11 9 12 13 5 0 0 5 5 7 9 0 13 4 5 8 9 0 1 1 0 0 0 0
5 5 5 5 7 5 5 6 5 6 14 13 16 22 24 31 30 23 21 3 2 4 6 9 6 9 5 3 8 5 9 0 0 0 0 0 0 1
6 4 5 5 5 4 5 3 2 2 3 3 2 2 9 24 23 24 19 6 9 10 8 2 4 2 0 0 0 0 0 0 0 0 0 0 0 0

GFSNE_con_sbcape_048.txt.gz
CAPE
2424 2416 2109 1006 1121 818 634 533 544 664 557 1246 402 936 754 733 904 1095 1193 662 74 0 0 0 0 0 0 0 0 0 10 10 5 0 9 0 1 0
1934 2115 2525 1224 1281 1335 1170 912 800 811 685 497 672 735 1070 1091 748 1049 1080 797 213 3 0 0 0 0 0 0 0 0 0 0 1 2 0 0 1 0
2605 2343 2578 2674 1996 1423 1332 1232 1200 1055 933 612 491 693 1503 1714 1532 1449 1214 1196 852 131 5 0 0 0 0 0 0 0 0 0 0 0 0 0 0 1
2691 2695 2678 2323 2769 2751 2047 2328 1991 1964 1148 2492 1981 1095 2070 2081 1699 1671 1490 976 790 334 1 0 0 0 0 0 0 0 0 0 0 0 0 0 0 0
2737 2765 2842 2967 3074 2592 2431 2124 2082 2377 2613 2321 2176 1597 1460 1613 2029 2682 2192 2210 1347 744 162 0 0 0 0 0 0 0 0 0 0 0 0 0 0 0
2817 2846 2944 3174 3408 3523 3478 3381 3228 3097 2942 2402 1955 1545 1268 1815 1677 1709 1801 1798 1758 1632 1215 687 238 13 0 0 0 0 0 0 0 0 0 0 0 0
2774 3030 3108 2950 2756 2991 3297 4363 4345 3412 2539 2047 1878 1868 1894 1993 2645 2259 2474 2493 2824 2614 2470 2386 2205 1844 1266 0 0 0 0 0 0 0 0 0 0 0
2889 3018 3155 2635 2467 2123 1787 1642 1818 3646 4571 3164 2557 2531 4485 3655 2892 2723 2528 2547 3115 3310 3916 3258 3202 3146 2780 2313 1480 0 0 0 0 0 0 0 0 0
3083 2842 2604 2021 2463 2908 1462 1049 846 628 622 2504 3304 3594 4254 4132 4667 4500 4353 4176 4107 3767 3892 3335 3174 3306 2792 2463 1533 424 0 0 0 0 0 0 0 0
2769 2890 3409 3320 2891 2496 2865 2834 2926 3107 2764 2186 2675 2886 2862 3305 4272 4577 4500 3964 3568 3315 3297 2949 2910 3174 3030 2978 2020 1115 142 0 0 0 0 0 0 0
2849 3112 3563 3633 2840 2313 2801 3047 3087 2996 1952 1726 1900 2093 2091 1810 1544 2530 2325 2845 2822 3267 3602 3225 3271 3448 3218 2848 2358 1358 348 0 0 0 0 0 0 0
3332 3928 2248 2155 2526 1998 2831 2780 3063 2803 3066 3651 4551 1625 651 2141 752 1223 2661 2371 2689 2505 3125 2741 2866 2450 1914 1974 1220 816 767 58 0 0 0 0 0 0
2022 1939 2161 1501 1641 1048 700 2813 3031 3219 3528 4127 4212 3974 3972 3834 3831 3510 1814 1448 2226 2620 2895 2826 2393 1752 1353 1091 836 685 854 754 834 336 0 0 0 0
2403 2227 3333 2655 1368 704 115 1098 1336 1047 2572 3088 3105 2680 2769 3058 2944 3168 3202 3139 3032 3085 3040 2379 1585 916 374 124 148 39 18 34 161 409 154 65 0 0
2810 2927 1499 1592 1119 672 428 449 81 1767 1261 815 1242 1623 1961 1700 2488 2973 3421 3350 2190 1221 510 455 131 143 1 0 0 0 11 0 4 31 20 43 1 3
1016 2079 2669 2176 1419 1810 2626 1655 1230 668 731 1152 1060 1350 2067 2388 2484 1900 816 476 329 164 88 0 0 4 1 0 0 0 1 4 4 12 34 32 1 0
2714 3084 3132 3092 3212 3052 2885 2480 1906 1018 826 629 1368 1960 2411 1803 880 350 309 273 150 100 1 0 0 0 0 6 1 1 3 4 8 16 18 6 0 0
1957 3295 3228 3050 2652 2382 1898 1276 1198 836 1499 1409 1477 1255 740 325 297 194 92 74 127 69 0 0 1 0 0 0 0 1 4 7 10 10 9 6 2 3
2763 2396 1928 1404 647 485 475 558 791 819 635 451 400 346 330 267 67 163 155 152 92 0 0 6 4 3 7 1 0 0 8 12 9 5 7 5 7 5
769 387 181 115 157 210 269 378 472 437 221 123 174 260 315 266 179 125 85 15 6 4 3 5 4 6 5 12 8 5 1 6 9 12 12 10 8 6
1179 761 517 199 60 2 3 7 9 9 7 4 9 77 5 4 20 11 4 0 0 7 8 6 4 0 4 11 7 7 12 0 1 20 14 5 5 4
3 3 2 2 3 3 4 3 6 8 7 5 6 12 18 22 16 18 13 17 14 9 16 19 12 7 8 5 8 8 10 0 0 0 0 0 2 4
3 4 5 4 2 3 2 0 0 0 0 1 6 13 15 21 33 30 29 26 23 9 4 26 22 4 0 0 0 10 9 1 1 10 0 0 0 0

GFSNE_con_sbcape_051.txt.gz
CAPE
2675 2455 1965 1014 854 731 539 610 658 899 889 1892 470 1024 667 576 909 1229 1713 833 98 1 0 0 0 0 0 0 0 0 34 53 69 82 68 43 23 0
1659 3757 3445 1757 1346 1202 1091 899 701 731 801 674 799 842 922 932 921 1095 1103 708 201 45 0 0 0 0 0 0 0 0 0 0 0 0 0 0 0 1
3074 2713 3094 3824 1961 1152 1176 1114 1063 1042 974 882 725 1361 2640 2980 2525 2321 1593 2213 1285 125 3 0 0 0 0 0 0 0 0 0 0 0 0 0 0 0
2947 3470 2614 2273 3862 3997 2491 3843 2216 2627 1399 2826 2038 1857 3103 3060 3237 3524 1858 1596 1614 976 1 0 0 0 0 0 0 0 0 0 0 0 0 0 0 0
3041 3461 3304 3565 4177 3011 3688 2414 1898 2674 2783 2511 2584 2336 2286 2055 2565 3579 3604 3139 2406 1633 996 120 0 0 0 0 0 0 0 0 0 0 0 0 0 0
3319 3395 3527 3775 4255 4634 3870 4611 3837 3434 2768 2412 2352 2537 2348 2702 2362 2417 2748 2662 3025 2436 2219 2048 938 0 0 0 0 0 0 0 0 0 0 0 0 0
3403 3418 3425 3333 2639 3528 3293 4160 4315 3825 2725 2554 2337 2148 2037 2230 3070 2902 2921 3304 3324 2982 2876 3541 3582 3533 1896 0 0 0 0 0 0 0 0 0 0 0
3867 3965 3932 2664 2274 2239 2287 2324 2403 3664 4845 3257 2616 2571 3791 3442 3129 2874 2979 2769 3318 3486 4550 4244 3735 3566 3641 3338 2900 109 0 0 0 0 0 0 0 0
3679 4016 3471 2039 2768 3796 2070 1943 1623 1064 864 2992 3520 3617 3720 4134 4461 4427 3601 4171 4581 4037 4142 3694 3681 3465 3569 2981 2744 2397 467 0 0 0 0 0 0 0
3581 3813 4108 3833 3813 3427 3877 3741 3663 3818 3257 2247 2914 3371 3939 4248 4491 4156 4683 4643 4239 3630 4278 3580 3488 3869 3753 3552 2529 1681 1120 210 0 0 0 0 0 0
3359 3394 3507 3916 3559 2748 3352 3509 3755 3841 2075 1660 1553 1879 2222 1809 1108 2252 3173 3373 3413 3558 3856 3806 3701 3706 3095 2090 1800 879 679 403 280 86 0 0 0 0
3445 3840 2753 2554 2923 2272 3368 3923 3998 4105 3700 3557 3921 2752 1419 1999 1048 1114 2801 3001 3296 2926 3816 3170 3275 2879 1963 1999 1551 1119 695 137 1 0 0 0 0 0
2197 1930 2236 1718 1723 1401 1040 3450 3554 3519 3062 3809 4093 4514 4108 4468 4545 4391 3969 3353 3347 2694 2907 3446 2656 1723 1130 853 451 334 124 88 125 6 0 0 0 0
2366 1332 1734 1173 634 516 94 1043 1603 1536 2521 2888 3237 3677 3669 3506 3181 3418 3588 3072 3867 3278 3857 3528 1245 643 241 20 7 10 3 0 0 0 0 3 0 0
2491 1231 1533 1807 344 0 44 1234 901 2366 2834 3587 3562 3273 2596 2514 3061 2722 3172 4334 4019 3949 1880 808 499 473 2 0 0 0 0 0 0 4 3 6 8 14
1494 2029 2285 1851 1844 2531 2624 272 2471 3342 3583 2844 1720 1756 2246 2127 2461 3233 2918 1695 693 577 640 279 164 49 0 0 0 0 0 0 0 5 11 10 9 13
2422 2753 2731 3044 3408 3827 3914 4204 4160 2880 1917 1454 1607 2124 1767 2995 3343 2542 931 576 553 449 420 194 150 24 0 0 0 0 0 0 4 12 12 9 5 3
2540 3359 3646 3699 3661 3885 3679 3022 2157 1603 1578 1764 1983 2379 2458 1844 1173 685 523 426 476 441 323 29 34 0 0 1 0 0 0 1 5 11 12 13 6 5
3582 3539 4026 3670 2699 2213 1988 1682 1608 1677 1726 1499 1476 1252 1028 780 403 420 472 459 472 431 42 0 30 5 0 0 0 0 0 5 9 11 17 13 8 4
3150 2296 1553 986 533 437 431 551 836 1097 863 1038 704 554 438 485 519 502 399 332 177 85 1 3 18 10 2 3 3 1 0 1 7 12 11 14 11 2
1373 1131 871 503 504 526 409 293 263 161 154 137 81 130 198 148 142 71 20 0 0 11 20 21 56 0 0 12 21 2 1 0 1 9 6 11 12 18
1972 1035 486 185 69 58 9 10 4 4 6 11 7 24 21 9 14 8 13 18 24 22 19 8 45 56 42 24 13 4 4 6 0 0 0 0 2 5
176 74 4 4 5 6 6 3 0 4 5 2 8 8 12 6 15 14 18 30 26 37 31 16 11 27 27 17 0 1 0 3 6 7 1 0 0 0

GFSNE_con_sbcape_057.txt.gz
CAPE
1308 1151 1823 1243 1076 1042 408 138 384 290 284 780 968 658 468 519 625 773 349 289 71 0 0 0 0 0 0 0 0 0 0 0 0 0 0 14 118 411
1820 1850 1565 1480 1003 1754 818 954 687 257 333 526 569 1231 1098 922 881 553 328 461 558 88 0 0 0 0 0 0 0 0 0 0 0 0 0 0 0 16
1770 1578 1735 1659 1506 1715 2365 1885 1157 962 873 621 1215 1163 1223 1275 1269 817 593 880 795 769 229 0 0 0 0 0 0 0 0 0 0 0 0 0 0 0
1969 1733 1796 2154 1940 1604 2006 1882 2000 2072 1740 1234 1134 1136 1450 1635 1522 1486 1705 1982 1377 1286 1157 464 0 0 0 0 0 0 0 0 0 0 0 0 0 0
1908 2047 2008 1658 2196 2411 2019 1988 1842 1712 2233 1954 1915 1992 2302 2087 1905 1568 2130 2435 2015 1664 1402 1355 990 108 0 0 0 0 0 0 0 0 0 0 0 0
2158 1968 2012 2269 2073 2235 2534 2448 2272 2316 2104 2060 2046 1896 1818 2095 2043 2240 2059 1885 2035 2003 1737 1338 3002 2780 1471 204 0 0 0 0 0 0 0 0 0 0
1749 1946 2152 2105 2439 2461 2577 2604 2723 2655 2605 2609 2493 2290 2041 2010 2165 2246 1880 1463 1841 1845 1691 3256 2883 2866 2946 2732 800 129 11 0 0 0 0 0 0 0
2183 1957 2210 2270 2094 2187 2255 2720 2863 2848 2929 2769 2521 2540 2151 1947 1979 1874 1741 2466 2323 2113 3439 3067 2850 3132 2995 3017 2817 1403 267 0 0 0 0 0 0 0
2182 2126 2102 2226 2205 2232 1998 1210 834 787 1132 1782 1785 1769 1803 1736 1852 2016 2308 2632 2621 2759 3118 2815 2751 2767 2727 2993 2107 430 0 0 0 0 0 0 0 0
2197 2240 2179 2165 2097 1902 2014 2128 1667 1048 951 660 662 1480 1701 1822 1981 2256 2528 2698 2863 2139 2483 2960 2540 2776 2826 2342 947 0 0 0 0 0 0 0 0 0
1548 1793 2050 2206 2196 2282 1754 2121 2318 2704 2804 2083 2023 1462 1341 1268 1509 1483 2335 2646 1902 2506 2797 2868 2649 2555 2494 1432 3 0 0 0 0 0 0 0 0 0
982 1156 1718 2017 2453 2259 1494 1596 1418 1529 1622 1954 1842 1039 544 429 431 119 1328 1480 2084 2853 2674 2583 2595 2037 843 376 0 0 0 0 0 0 0 0 0 1
887 1020 1341 1412 947 851 454 1276 1885 2184 2096 2318 2563 2370 2210 2783 2949 1272 897 1972 2349 2754 2527 2506 2412 942 413 158 0 0 0 0 0 0 0 0 0 0
1237 1278 1173 1477 1469 959 15 32 609 360 1691 1968 1866 1871 1953 2155 2811 2673 2539 2651 2762 2915 2783 2159 2150 306 8 0 0 0 0 0 0 0 0 0 0 0
1616 1486 1610 1319 248 4 0 3 0 38 871 1333 1567 1854 2135 2495 2063 1997 2300 2597 2386 2374 2455 2323 1739 58 0 0 0 0 0 0 0 0 0 0 0 1
1154 864 313 366 522 1172 78 0 0 177 653 1214 1861 2181 1851 1773 1827 1874 2138 1835 2113 974 719 1315 137 1 0 0 0 0 0 0 0 0 0 0 0 0
724 1188 630 685 1100 1195 1818 564 99 1166 1864 2468 2473 2191 1838 1717 1685 1826 1983 2040 1261 221 30 183 0 0 0 0 0 0 0 0 0 0 0 0 0 0
385 1527 1572 1733 1817 1644 1918 2603 1678 1556 2233 2186 1898 1711 1642 1557 1525 1749 1457 61 34 32 58 0 0 0 0 0 0 0 0 0 0 0 0 0 0 3
1355 1676 1841 1833 1906 1709 1587 2103 2435 2166 1707 1626 1370 1276 1406 1519 1288 246 109 73 25 0 0 0 0 0 0 0 0 0 0 0 0 0 0 0 0 0
1348 1526 1788 1615 1449 1597 1590 1510 1211 1178 1039 985 721 409 190 242 130 8 0 0 0 0 0 0 0 0 0 0 0 0 0 0 0 0 0 0 0 0
574 235 195 137 126 121 52 31 99 100 195 75 16 6 4 0 0 0 0 0 0 0 0 0 0 0 0 0 0 0 0 0 0 0 0 0 0 0
186 143 96 75 26 30 9 0 0 0 0 1 0 0 0 0 0 0 0 0 0 0 0 0 0 0 0 0 0 0 0 0 0 0 0 0 0 0
106 77 18 5 0 0 0 0 0 0 0 0 0 0 0 0 0 0 0 0 0 0 0 0 0 0 0 0 0 0 0 0 0 0 0 0 0 0

GFSNE_con_sbcape_060.txt.gz
CAPE
817 493 872 884 419 470 180 0 11 100 44 342 686 284 186 125 218 361 543 271 202 69 0 0 0 0 0 0 0 0 0 3 9 36 40 61 141 353
1195 1348 812 871 722 1081 1083 230 89 0 134 87 167 536 864 547 435 499 350 305 208 98 0 0 0 0 0 0 0 0 0 0 0 0 0 0 0 4
1070 1060 1248 1105 1067 993 1302 1356 1150 326 355 231 213 832 1015 755 863 713 677 363 286 415 301 71 0 0 0 0 0 0 0 0 0 0 0 0 0 0
1087 1291 1367 1659 1525 1145 1193 1349 1256 1111 1032 1106 421 873 1134 1640 1586 1605 1675 1719 1659 1684 1361 653 178 16 0 0 0 0 0 0 0 0 0 0 0 0
1191 1318 1324 1116 1567 1667 1418 1472 1438 1595 1463 1426 1805 1327 1679 1416 1494 1317 1481 1841 1901 1909 1890 1616 1254 2200 2000 266 12 0 0 0 0 0 0 0 0 0
1205 1282 1464 1481 1239 1349 1735 1867 1900 1802 1609 1439 1325 1426 1512 1692 1468 1848 1720 1180 1248 1555 1614 1308 2499 2348 2572 2524 1567 226 0 0 0 0 0 0 0 0
1264 1326 1541 1564 1669 1621 1678 1808 1880 1833 1861 2018 2039 1962 2078 2232 2178 1722 1518 1196 1415 1615 1645 2734 2490 2486 2541 2474 1828 33 0 0 0 0 0 0 0 0
1397 1337 1280 1552 1561 1661 1644 1981 2041 2066 2135 2190 2344 2548 2282 1689 1379 1370 1269 1513 1925 1707 2620 2455 2260 2474 2412 2413 0 0 0 0 0 0 0 0 0 0
1531 1559 1535 1812 1734 1754 1683 912 561 1380 2112 2162 2171 1782 1610 1433 1326 1462 1531 1601 1956 2187 2560 2972 2177 2440 2233 1393 0 0 0 0 0 0 0 0 0 0
1672 1779 1710 1742 1606 1605 1609 1665 1578 1217 615 102 445 1175 1240 1335 1455 1747 1726 1877 2283 2738 2121 2052 2093 2569 2170 0 0 0 0 0 0 0 0 0 0 0
913 1289 1638 1672 1648 1640 1459 1657 1668 1773 2098 1625 835 851 795 898 611 1353 1763 2123 2407 1812 2210 2786 2373 2489 1726 31 0 0 0 0 0 0 0 0 0 0
845 908 1095 1659 1846 1629 1161 1448 1433 1358 1115 981 1219 886 333 361 396 109 1279 1742 1922 2058 2156 2724 2525 1144 509 104 0 0 0 0 0 0 0 0 0 0
583 679 757 891 661 1049 351 1231 1494 1561 1472 1231 1440 1661 1810 1851 1954 1214 246 936 1309 1931 2206 2294 2332 793 218 66 0 0 0 0 0 0 0 0 0 0
1136 635 681 611 390 124 0 131 431 178 178 955 1360 1574 1671 1576 1497 1848 2157 1397 1837 2510 2639 1936 1883 567 34 0 0 0 0 0 0 0 0 0 0 0
1554 1190 767 649 349 27 1 3 0 0 18 481 1044 1272 1165 1348 1833 1884 1715 1845 2094 2076 2049 1730 1700 60 0 0 0 0 0 0 0 0 0 0 0 0
674 964 480 296 128 124 39 0 0 0 22 331 677 892 1106 1493 1795 1493 1834 1645 1693 1500 87 555 848 0 0 0 0 0 0 0 0 0 0 0 0 0
320 579 37 45 220 223 420 383 0 0 15 164 580 1112 1580 1743 1873 1346 1387 1516 1642 472 9 0 0 0 0 0 0 0 0 0 0 0 0 0 0 0
10 814 954 746 777 911 664 1029 495 128 447 867 1514 1886 1896 1562 1540 1064 1202 1140 207 2 0 0 0 0 0 0 0 0 0 0 0 0 0 0 0 0
1369 916 1229 1112 1284 1295 1053 1175 1450 1222 825 1425 1762 1171 1158 960 924 993 190 0 0 0 0 0 0 0 0 0 0 0 0 0 0 0 0 0 0 0
818 1243 1172 1100 1051 1091 915 882 963 829 635 479 455 347 181 126 20 8 3 0 0 0 0 0 0 0 0 0 0 0 0 0 0 0 0 0 0 0
513 763 731 426 361 198 52 52 48 91 95 64 26 14 0 0 0 0 0 0 0 0 0 0 0 0 0 0 0 0 0 0 0 0 0 0 0 0
609 571 307 119 12 0 0 0 0 1 1 0 7 0 0 0 0 0 0 0 0 0 0 0 0 0 0 0 0 0 0 0 0 0 0 0 0 0
139 86 4 0 0 1 1 1 2 0 0 0 0 0 0 0 0 0 0 0 0 0 0 0 0 0 0 0 0 2 0 0 0 0 0 0 0 0

GFSNE_con_sbcape_063.txt.gz
CAPE
572 276 442 449 264 171 42 0 0 24 11 5 324 109 195 12 20 89 85 213 296 168 21 3 0 0 0 0 0 0 2 35 83 123 147 189 359 468
975 892 421 437 434 400 627 45 0 0 126 0 38 64 684 749 485 700 716 639 534 221 51 3 0 0 0 0 0 0 0 0 0 0 0 3 34 81
653 935 919 782 874 723 899 974 664 72 369 314 6 566 714 627 1080 1020 1088 1073 921 1529 1280 815 275 11 0 0 0 0 0 0 0 0 0 0 0 1
868 835 1029 943 1225 910 798 1047 858 574 655 864 337 856 1033 1272 1204 1472 1402 1472 1615 1418 1305 1301 1048 1396 1280 759 232 0 0 0 0 0 0 0 0 1
1020 963 948 1079 1285 1150 1049 1143 1114 1153 801 1066 1649 981 1181 998 1480 1286 1352 1452 1183 1142 1410 1641 1465 2037 1810 1376 265 0 0 0 0 0 0 0 0 0
986 1040 1194 1226 1189 1038 1047 1463 1396 1499 1328 1179 1009 983 1086 1360 1208 1620 1852 1171 1083 1252 1528 1397 1929 2199 2117 1337 1 0 0 0 0 0 0 0 0 0
986 1039 1141 1266 1396 1380 1239 1176 1239 1361 1372 1401 1430 1416 1629 1779 2036 1361 1269 1006 974 1211 1383 1883 2080 1946 2040 0 0 0 0 0 0 0 0 0 0 0
961 880 1029 1371 1273 1208 936 1299 1786 1609 1556 1527 1642 1864 1795 1610 1120 1049 918 1063 1529 1235 2198 2126 1991 1946 1659 0 0 0 0 0 0 0 0 0 0 0
993 1018 1009 1321 1246 1268 1313 923 307 298 1110 1861 1881 1811 1771 1296 939 971 936 969 1227 1556 2099 2639 1808 1838 155 0 0 0 0 0 0 0 0 0 0 0
1028 1091 1134 1231 1310 1373 1411 1429 1286 1106 582 171 669 1538 1425 1296 905 1085 1203 1186 1321 1854 2348 2180 1675 2271 1 0 0 0 0 0 0 0 0 0 0 0
787 916 1284 1376 1401 1266 1273 1355 1300 1251 1282 1009 534 552 439 529 162 765 1084 1266 1727 2097 1364 2215 2024 2265 182 0 0 0 0 0 0 0 0 0 0 0
958 735 650 1046 1269 1150 592 1119 1273 1442 1308 1029 653 255 33 53 1 61 848 1481 1671 1635 1678 2299 2197 1308 530 9 0 0 0 0 0 0 0 0 0 0
843 859 805 665 371 547 69 1194 1282 1395 1141 703 646 650 911 1203 1297 294 253 947 1248 1432 1572 2135 2089 820 245 11 0 0 0 0 0 0 0 0 0 0
892 781 694 674 295 4 0 17 535 246 219 563 742 802 852 925 1112 1322 1380 558 846 1372 1687 1639 1851 1027 85 0 0 0 0 0 0 0 0 0 0 0
1058 1064 900 558 167 0 0 0 0 0 6 4 201 361 591 800 875 1132 1616 1744 1621 1710 1702 1584 1685 361 11 13 0 0 0 0 0 0 0 0 0 0
184 538 563 125 16 23 1 0 0 0 0 13 212 415 412 618 889 1189 1838 1608 1522 1176 0 0 952 107 2 0 0 0 0 0 0 0 0 0 0 0
257 361 904 214 456 138 29 33 0 0 0 0 17 118 318 564 937 1280 1480 1251 1464 666 16 0 0 0 0 0 0 0 0 0 0 0 0 0 0 0
14 899 815 948 1028 1006 883 571 170 0 0 8 45 191 441 913 1238 834 986 1127 1129 489 3 0 0 0 0 0 0 0 0 0 0 0 0 0 0 0
991 1106 1081 970 939 831 885 784 836 498 229 270 500 742 934 1057 669 524 455 149 25 0 0 0 0 0 0 0 0 0 0 0 0 0 0 0 0 0
843 1498 1086 1009 898 902 834 944 926 1051 796 728 865 863 647 588 228 296 178 48 1 0 0 0 0 0 0 0 0 0 0 0 0 0 0 0 0 0
106 852 1121 980 1043 986 949 936 912 954 1119 874 551 515 252 103 21 0 0 0 0 0 0 0 0 0 0 0 0 0 0 0 0 0 0 0 0 0
722 364 686 673 682 749 350 351 294 184 177 146 0 0 0 0 0 0 0 0 0 0 0 0 0 0 0 0 0 0 0 0 0 0 0 0 0 0
138 281 128 15 1 1 1 1 1 1 0 0 0 0 0 0 0 0 0 0 0 0 0 0 0 0 0 0 0 0 0 0 0 0 0 0 0 0

GFSNE_con_sbcape_069.txt.gz
CAPE
1906 2090 1867 1727 1642 1527 1900 1428 1384 1154 1015 1360 1405 1988 2429 2702 2202 2791 3218 2054 1351 1182 848 503 342 250 49 9 21 20 44 46 45 70 72 112 129 200
1776 2197 2039 1446 1560 1605 1689 1860 1750 1838 1503 1592 1675 2173 2768 2987 2253 3028 3380 2029 2517 1808 1204 462 419 721 708 448 13 0 0 0 0 0 0 0 0 1
2008 2099 2244 2439 1654 1719 2079 2199 2152 2005 1970 1826 2170 2432 3156 3246 3047 3265 3105 3013 2161 2066 1185 494 510 615 1091 410 0 0 0 0 0 0 0 0 0 0
2017 2071 1913 2018 2632 2570 2271 2753 2440 2591 2320 2428 2525 2483 2910 3127 3337 3522 2925 2287 2944 2046 1628 1151 768 780 873 2 0 0 0 0 0 0 0 0 0 0
1998 2172 2127 2281 2508 2210 2639 2560 2438 2723 2826 2689 2534 2497 2663 2655 2972 2743 3123 3263 2476 1806 1572 1342 1484 848 27 0 0 0 0 0 0 0 0 0 0 0
2194 2147 2175 2294 2534 2830 2637 2800 2736 2740 2602 2822 2321 2367 2366 2665 2952 2710 2383 2344 2661 2667 1778 1568 2052 0 0 0 0 0 0 0 0 0 0 0 0 0
2305 2247 2150 2017 1830 1962 2082 2377 2697 2871 2460 2310 2223 2176 2137 2103 2218 2494 2489 2646 2921 3031 2302 2632 3151 3497 35 0 0 0 0 0 0 0 0 0 0 0
2397 2357 2285 1430 1169 817 624 886 1394 2688 2851 2527 2049 2124 2556 2689 2406 2446 2526 2589 2019 2195 2837 2729 3115 3466 1443 333 0 0 0 0 0 0 0 0 0 0
2519 2436 2243 1747 1759 2253 1009 131 93 48 581 2378 2541 2345 2527 2466 2846 2902 2832 2930 2438 2072 2470 2877 3242 3313 893 0 0 0 0 0 0 0 0 0 0 0
2242 2508 2516 2386 2259 2099 2206 2162 2171 2169 1778 1281 1880 2340 2619 2855 3052 2933 3068 2901 2495 2329 3080 3305 2877 3488 794 4 0 0 0 0 0 0 0 0 0 0
2160 2195 2513 2451 2174 1310 1888 2129 2225 2252 1425 1574 1507 1582 1495 1105 1176 2086 2163 1905 1509 1354 2647 3521 2783 3266 1171 291 0 0 0 0 0 0 0 0 0 0
1696 2303 1098 1482 1554 840 1409 1964 2185 2071 1777 1692 1986 714 125 788 0 935 1963 1934 1564 1626 2289 3024 2584 3196 2647 1215 9 0 0 0 0 0 0 0 0 0
636 635 680 200 132 61 65 2263 2293 1878 1229 1782 1794 1859 1964 2158 2243 1379 1697 1998 1712 1688 1882 3124 2562 3247 2806 1851 893 126 26 8 0 0 0 0 0 0
1224 928 887 354 0 0 0 228 971 746 1250 960 968 1426 1564 1612 1686 1997 2679 2528 2137 2581 2864 2787 2794 2965 2903 2318 1846 931 231 21 0 0 0 0 0 0
941 933 637 334 0 0 0 0 0 399 911 940 921 1026 1262 1470 1956 2014 2075 2268 2541 2640 2306 3116 2799 3635 2820 2236 2463 1825 478 71 0 0 0 0 0 0
13 401 496 255 194 526 360 8 22 725 852 880 828 929 1247 1530 1578 1614 1624 1915 2198 2304 2508 2694 2637 2828 2205 2014 2006 2210 788 262 0 0 0 0 0 0
125 498 863 980 1057 1093 1102 1216 1286 1009 878 1070 1209 1215 1372 1558 1657 1772 1903 2069 2075 2058 1958 2771 1466 1362 1340 1225 1706 1517 1295 291 25 0 0 0 0 0
156 1074 1360 1239 1102 977 1209 1409 1380 1112 1276 1121 1165 1218 1342 1530 1742 1985 2077 2073 2081 2069 1946 3006 1334 709 293 305 314 1036 542 168 23 0 0 0 0 0
710 1247 1401 1457 1296 1076 1299 1484 1457 1384 1954 1210 1107 1177 1351 1491 1676 1958 2131 2238 2171 2128 2213 3120 1505 530 844 980 452 2 289 81 1 0 0 0 0 0
1019 1336 1674 1354 1300 1577 1510 1344 1410 1714 1894 1665 1312 1252 1383 1530 1683 1964 2093 2267 2210 2398 2533 375 220 434 991 1186 986 228 0 26 0 0 2 0 0 0
182 986 1435 1761 1785 1965 1945 1867 1782 1050 1070 1553 1606 1583 1749 2111 2105 2102 2155 1629 1875 1875 844 699 591 220 502 101 97 116 5 0 0 0 8 10 15 11
2011 1380 1264 1838 1702 1791 1914 1854 2041 1130 998 1233 1375 1414 1342 1601 1723 1909 1855 281 126 441 659 930 159 93 109 120 202 77 0 0 0 0 0 0 13 8
2129 2306 2077 1819 1985 2259 1989 1675 1506 1392 1095 1065 1167 1259 1237 1047 1098 549 214 219 444 640 558 226 70 44 53 18 1 1 0 0 0 0 0 0 0 0

GFSNE_con_sbcape_072.txt.gz
CAPE
1664 1727 1883 1458 1489 1464 1544 1537 1517 1123 1076 2063 1565 2102 2178 2262 2182 2567 2730 2121 1850 1747 922 573 412 668 738 297 167 60 54 47 50 34 18 17 41 90
1198 1884 2220 1272 1661 1497 1413 1491 1559 1516 1398 1613 1678 2082 2889 2774 2212 2705 2496 2469 2597 1661 948 902 651 497 851 184 0 0 0 0 0 0 0 0 0 0
1669 1754 2273 2198 1569 1303 1571 1615 1641 1626 1455 1391 1917 2236 3363 3351 3262 3184 2469 2161 1336 1811 1332 1093 733 501 479 0 0 0 0 0 0 0 0 0 0 0
2138 1962 1977 1626 2485 2364 1837 2024 1843 1869 1862 2018 2470 2281 2659 2941 2968 3317 2617 1972 2348 1171 1299 1190 1013 598 24 0 0 0 0 0 0 0 0 0 0 0
2150 2106 2212 2024 2145 1667 2197 1644 1768 2119 2240 2218 2083 1960 2161 2518 2645 3285 2595 2628 1817 1149 821 1251 915 92 0 0 0 0 0 0 0 0 0 0 0 0
2437 2370 2129 2144 2418 2685 2522 2708 2637 2359 2498 2114 1955 1827 1854 2050 2499 2019 1603 1536 2006 1908 1382 1274 692 0 0 0 0 0 0 0 0 0 0 0 0 0
2603 2718 2425 1761 1699 2076 2362 3127 3285 2615 1947 1707 1714 1761 1728 1693 2365 1489 1625 1433 2279 1746 2198 1546 1890 709 0 0 0 0 0 0 0 0 0 0 0 0
2576 2790 2712 1709 1546 1596 1483 1284 1231 2655 2767 2368 1812 2029 3136 2439 1972 1487 1576 1314 1528 1595 1956 1195 1609 3082 3399 1911 0 0 0 0 0 0 0 0 0 0
2442 2407 2478 1953 2019 2349 885 546 313 261 527 2176 2537 2655 2934 2377 2646 2609 3248 2330 2193 1857 1816 1164 1504 2833 3736 56 0 0 0 0 0 0 0 0 0 0
2183 2238 2856 2821 2213 2185 2338 2123 2271 2226 1934 1609 1878 2058 2564 2634 3237 3048 3281 3169 2414 1995 2639 1885 1726 1781 3591 1640 0 0 0 0 0 0 0 0 0 0
2333 2662 2908 3077 2360 1493 2192 2188 2332 2221 1130 1543 1620 1536 1220 1322 1272 1619 1259 936 646 448 802 831 1533 1965 3304 2557 301 0 0 0 0 0 0 0 0 0
1653 2514 1599 1742 1947 1337 2460 2576 2590 1988 1318 1186 1769 1175 495 1373 342 1282 1682 1105 501 339 816 1145 1500 1599 2103 2987 2084 8 0 0 0 0 0 0 0 0
731 461 484 344 616 251 339 2835 2430 1442 778 1133 983 905 1049 1517 2319 2066 2220 1893 785 320 242 1459 1279 1497 1842 2546 3143 1747 323 14 0 0 0 0 0 0
1461 989 1208 510 0 0 0 437 823 580 454 47 49 98 152 368 589 1278 3422 3248 2300 3372 2960 3546 1889 1703 1832 1839 2369 3759 1543 838 434 96 0 0 0 0
1067 1153 875 71 0 0 0 1 0 580 489 59 94 65 77 63 1429 2199 2918 4367 3763 3517 2823 3386 2998 3163 2518 2388 2513 2838 3239 1245 573 124 23 0 0 0
17 44 510 642 504 714 577 28 91 629 539 458 202 97 182 71 161 568 1071 1191 1491 1438 3521 3351 3855 3609 2941 2544 2854 2961 2996 1990 723 196 20 0 0 0
437 930 1190 1194 1285 1361 1182 998 1027 844 747 796 816 704 474 184 173 428 707 997 1041 922 806 1381 3618 3604 3207 3134 2314 2451 2571 2793 1428 521 66 24 6 0
680 1114 1540 1682 1683 1650 1414 1203 1188 957 1311 1255 1106 946 817 550 340 456 692 924 1079 1076 1045 1243 3036 2743 1916 1643 1239 2416 2962 1882 2395 470 154 62 59 6
839 1507 1776 1786 1970 1975 1955 1775 1566 1339 1880 1224 1141 1057 788 726 517 564 646 1068 1801 1667 1570 1453 1824 2451 2182 1840 1383 175 1750 2657 929 356 113 72 56 6
746 1189 1560 2030 2269 2671 2139 2194 2067 2019 1953 1789 1632 1444 1231 960 861 878 904 1392 1446 1779 2043 2443 2705 2691 2232 2005 1715 1540 0 1032 767 244 134 57 3 0
993 1163 1229 1779 2264 2288 2313 2545 2676 2559 2293 2302 2234 2015 1777 1492 1317 1233 1113 732 1095 1879 2769 2546 2325 1532 2032 1964 1498 1158 92 0 30 191 108 39 9 13
1753 1773 1841 1800 2081 2673 2810 2888 2806 2764 2428 2289 2465 2394 2097 2321 2298 2116 1968 1943 2062 2142 2644 2558 2028 925 1035 1377 1386 1111 322 32 0 0 0 0 2 1
1870 2303 2315 2463 2456 2627 2723 2695 2727 2757 2369 2247 2254 2217 2087 1558 1482 1595 1711 1891 2205 2363 2048 1242 259 441 690 768 427 679 169 79 0 0 0 0 0 0

GFSNE_con_sbcape_075.txt.gz
CAPE
1667 1905 2191 1593 1026 1282 1108 1223 1706 1542 1333 2189 1506 2569 2095 2068 2226 2685 2717 1474 1904 1758 1237 1056 747 419 580 376 120 34 46 54 29 7 0 0 0 0
979 3049 2947 1862 1112 1090 1141 1198 1319 1490 1521 1560 1576 2169 2982 2960 2530 2925 2936 2147 1982 1967 1149 1099 1022 439 378 25 4 1 0 0 0 0 0 0 0 0
2656 1692 2683 3725 1803 1063 957 1109 1301 1434 1409 1290 1724 2904 3273 4061 3525 3928 3042 3574 2277 1505 937 1159 973 619 123 0 0 0 0 0 0 0 0 0 0 0
2268 2885 1770 1691 3670 3615 1931 3773 2436 3225 1927 3909 2786 1738 3568 3571 4577 4833 3053 1959 2448 1170 951 1064 997 606 4 0 0 0 0 0 0 0 0 0 0 0
2014 2429 2310 2814 3235 2406 2974 1985 1812 2267 2424 2065 2265 1880 1893 2083 2885 4012 4501 3705 2635 928 367 985 898 160 0 0 0 0 0 0 0 0 0 0 0 0
2361 2565 2463 2686 3355 3728 2859 3779 2931 2790 2348 1676 1510 1595 1812 2656 2181 2232 1937 1391 1546 1423 1036 1635 984 0 0 0 0 0 0 0 0 0 0 0 0 0
2912 2602 2999 2256 1712 2464 2186 3288 3626 3162 1784 1492 1388 1427 1471 1695 2956 2335 1919 1783 2559 1466 1199 1665 1638 579 0 0 0 0 0 0 0 0 0 0 0 0
3659 3784 3684 1739 1496 1184 1345 1482 1549 3063 4449 2496 1924 2012 4356 2934 1811 1695 1688 1354 1179 1596 2035 1667 1107 954 1580 651 0 0 0 0 0 0 0 0 0 0
3268 3788 2801 1580 2196 2894 1265 1161 1109 663 344 2583 3413 3319 3354 3586 3681 4073 3042 3119 2295 1750 2000 1313 1257 1714 2085 0 0 0 0 0 0 0 0 0 0 0
2981 3396 3547 3490 3401 3197 3183 2808 2572 2586 2349 1377 1898 2509 2998 3399 3628 3334 4037 4392 3110 2721 3167 2003 1573 1518 1704 3 0 0 0 0 0 0 0 0 0 0
2660 2655 2982 3537 3015 2164 2677 3520 3464 3465 1274 1632 1751 1938 1856 1340 1137 1622 1386 998 660 535 636 580 705 959 1247 1417 0 0 0 0 0 0 0 0 0 0
1995 2361 1387 1624 2119 2047 2757 3149 3217 3204 3319 1990 1783 894 325 1117 493 1005 1641 1574 954 631 574 593 527 880 1267 1435 288 0 0 0 0 0 0 0 0 0
1515 1511 1429 732 550 605 417 3074 3012 3180 2688 2256 1817 1248 1069 1926 2350 2381 2833 2241 1414 1024 679 605 531 654 883 1111 1653 309 88 0 0 0 0 0 0 0
1844 1443 1528 585 0 0 0 514 1024 1291 1968 1609 939 463 363 589 452 750 3151 3330 2487 2568 2375 3308 2013 1569 1179 860 1042 1730 1816 757 53 194 106 0 0 0
1700 1411 474 4 0 0 0 1 0 585 1152 1357 1225 812 332 134 489 912 1529 4455 4156 4065 2927 4068 3430 3098 2716 2024 1572 1637 1476 2315 1623 1089 603 61 0 0
236 631 642 556 272 142 470 48 6 718 1051 1231 1204 1032 583 195 197 422 395 367 821 1723 3734 3714 3908 4364 3031 2629 2581 2406 2094 2767 2381 888 974 280 87 1
961 1397 1277 1257 1371 1626 1897 2034 2123 1515 1155 1169 1360 1155 833 604 432 477 441 447 788 1248 1264 1317 3859 4070 3694 3723 2642 2673 2555 2507 3500 1884 1094 1078 264 169
421 1495 1711 1801 2163 1948 2212 2328 2417 1621 1892 1752 1554 1341 1170 1207 1235 1151 740 554 771 1124 1283 1374 1396 3059 2768 3455 2609 2719 2580 2987 2898 2096 686 485 371 577
356 1901 2096 1968 2188 2384 2153 2188 2269 2046 2157 1789 1897 2078 1851 1672 1486 1327 1225 997 1043 1272 1387 1615 1880 1766 2198 2183 2207 1170 2339 2662 2890 2195 1363 718 388 489
330 1210 1983 2253 2475 2631 2401 2487 2503 2394 2251 2384 2395 2103 1870 1877 1815 1602 1392 1267 1122 1335 1646 2149 2284 2213 2506 2053 2196 2400 319 2260 2277 2057 1357 885 0 0
1067 1488 1484 2110 2240 2543 2812 2955 3163 2854 2837 2705 2433 2295 2080 1985 2017 1845 1575 775 815 1818 2002 2024 2266 2026 4058 3353 2075 1921 2109 0 27 933 1567 472 210 76
454 1818 1858 1799 1970 2565 2792 2788 2817 3164 3418 2892 2617 2869 3165 2751 2263 2178 1889 1431 2051 1601 1657 1918 3668 2886 2911 2286 2191 2120 1944 729 1 0 0 34 301 67
791 1456 2688 2619 2361 2891 2613 2838 2805 2829 2815 2853 2908 2649 2905 2720 2848 2691 2808 2543 2332 2523 2933 2748 3162 2447 2355 2109 1568 1337 987 738 15 0 0 0 0 0

GFSNE_con_sbcape_078.txt.gz
CAPE
3175 2743 2854 1799 2178 1802 2366 2585 2323 2477 2449 3170 2186 3088 3162 3519 1861 3429 3319 2596 1963 1255 2028 1332 421 548 675 176 61 81 85 39 0 0 0 0 0 0
1978 2819 3080 1027 2632 2347 1955 2528 2488 2600 2001 1994 3071 3695 3613 3439 3179 3968 3971 2947 2766 1479 2041 1365 421 711 399 25 8 6 0 0 0 0 0 0 0 0
3174 2794 2866 2908 2296 2963 2377 2660 2471 2861 2875 2632 2819 4715 4202 4404 3607 4048 4044 3485 3004 1515 1942 1204 448 834 174 0 0 0 0 0 0 0 0 0 0 0
2776 2428 2771 2385 3218 3304 2855 2822 3264 3117 3119 2907 2831 2627 2354 2778 4706 4219 4148 2664 2639 1698 1284 919 427 703 9 0 0 0 0 0 0 0 0 0 0 0
2971 3135 2851 3133 3028 2645 3524 3304 2603 2913 3106 2700 2253 2904 3093 2954 3256 4230 4193 4053 3681 1392 765 581 233 315 0 0 0 0 0 0 0 0 0 0 0 0
2824 2991 3089 3023 3023 3142 2987 3129 2695 3173 2609 2851 2233 1868 1938 2140 3574 3067 3234 2317 2026 2140 1301 1046 252 0 0 0 0 0 0 0 0 0 0 0 0 0
2364 2680 2936 3260 2490 2934 2523 2947 2850 2975 2553 2094 1849 1908 1951 3294 3371 3242 2554 2725 2331 2326 1424 2492 566 3 0 0 0 0 0 0 0 0 0 0 0 0
2422 2860 3230 2470 1784 1150 1194 1349 1406 3020 3035 2868 2760 2373 2368 3085 2843 2806 2390 1720 1202 1958 1988 1572 1492 1305 443 0 0 0 0 0 0 0 0 0 0 0
2912 2711 2710 1720 2191 2176 875 847 813 323 603 1423 1648 2148 2278 2198 2762 3066 2713 2906 2596 1838 1741 1125 1320 1781 1846 52 0 0 0 0 0 0 0 0 0 0
2506 2804 2678 2441 2747 2769 2970 2454 1657 1656 1216 395 554 758 1047 1356 2161 2102 2031 2401 2640 2710 2511 2110 1933 1857 1484 65 0 0 0 0 0 0 0 0 0 0
2027 2090 2083 2936 2518 1962 2014 2698 3062 2960 2279 1900 1670 1099 879 761 816 1633 1523 1226 898 717 547 519 374 1058 1182 39 0 0 0 0 0 0 0 0 0 0
1230 1530 1563 1471 1400 1428 1453 2191 2129 2011 2718 2679 844 196 55 258 188 247 1339 1400 1220 1088 779 446 548 708 730 1491 0 0 0 0 0 0 0 0 0 0
1568 1402 1249 1056 862 391 101 1887 2135 1923 1882 1946 2026 1668 1411 1671 1691 1052 1002 1190 1135 1250 1023 701 330 1735 1511 882 1063 0 0 0 0 0 0 0 0 0
1921 1641 1625 918 165 35 0 2 442 683 1626 1634 1597 1434 1163 885 613 369 1720 1665 1502 1502 1360 1161 1792 1576 1483 1325 1231 542 31 16 0 0 0 0 0 0
1911 1795 1556 17 0 0 0 0 0 8 512 752 867 975 1000 873 430 133 78 1993 2461 2402 2053 2025 1859 1976 2173 1888 1608 1172 1138 510 0 33 149 0 0 0
0 531 884 841 824 109 67 11 0 19 234 467 546 638 794 890 764 366 17 0 4 1767 2875 2585 2856 2557 2160 2237 2010 1798 1665 1481 1313 1008 866 42 0 0
1 808 1197 1289 1170 1080 1006 1096 1006 332 265 522 665 832 973 999 851 514 99 0 107 178 70 1877 2621 2725 2720 2259 2131 2123 2171 2146 2019 1755 813 523 264 101
27 643 1086 1603 1855 1780 1416 1215 1227 1328 1578 1049 958 951 921 933 903 751 494 228 228 230 148 133 1184 2563 2880 2660 2362 1870 2143 1898 2050 1713 1500 488 215 310
0 108 875 1663 1990 1907 1980 2012 1843 1742 1814 1761 1709 1635 1330 1143 837 693 560 615 953 755 441 412 1256 1381 1242 1065 1265 1943 1775 1788 1757 1739 1550 410 240 363
0 22 205 703 1095 1640 1902 1932 2163 2306 2442 1952 1786 1445 1372 1529 1627 1383 1183 1098 910 696 493 499 970 633 551 492 551 1546 841 1814 1429 1302 1137 349 1 0
34 191 373 634 929 1269 1805 2096 1927 1802 2292 2411 2529 2054 2016 1573 1104 906 939 962 913 901 826 768 569 422 834 2488 1543 1343 1272 106 396 1298 1243 637 0 0
0 11 54 143 1437 1387 1571 2162 2267 2099 1829 2026 2750 2139 2894 2334 1649 1647 1623 1263 1094 1035 1068 1115 966 1079 995 1256 1165 1314 1377 115 1 1 1 42 98 49
426 608 905 1055 2058 2023 1945 2074 2015 2061 2011 1779 1945 2359 2323 2092 1823 2074 1679 1783 1443 1408 1248 1202 1160 1074 966 1096 1025 1375 1583 1720 30 2 2 4 0 0

GFSNE_con_sbcape_084.txt.gz
CAPE
599 809 695 451 161 993 783 759 448 626 647 1210 1001 1107 1652 1636 1504 1342 1989 2067 2347 2045 1712 803 569 564 617 109 58 3 0 0 0 0 0 0 0 0
176 274 423 947 158 768 1112 923 689 480 675 787 1799 2164 2075 1570 1582 1881 1921 1968 1968 1965 1611 902 430 391 420 20 0 0 0 0 0 0 0 0 0 0
317 1106 947 1085 1101 1169 968 774 1013 1023 878 918 1504 1179 987 778 960 1022 1538 2144 2064 2118 1515 992 417 252 319 3 0 0 0 0 0 0 0 0 0 0
741 568 861 712 1028 1334 1098 1134 1306 1163 1061 1138 640 830 933 955 891 717 1326 1981 2129 1795 695 504 314 207 351 10 0 0 0 0 0 0 0 0 0 0
733 624 858 596 603 758 882 697 833 1254 1175 1328 1114 871 949 370 944 1114 1069 1453 922 1076 483 303 93 101 281 30 0 0 0 0 0 0 0 0 0 0
799 792 833 865 780 602 743 714 616 900 821 840 719 623 478 709 1183 1583 1057 703 912 534 158 348 43 0 63 0 0 0 0 0 0 0 0 0 0 0
1038 1102 1157 1322 1348 1024 997 949 695 922 880 998 1196 1016 1178 1271 1429 1340 895 690 408 173 625 352 147 13 0 0 0 0 0 0 0 0 0 0 0 0
768 790 826 1040 1056 1319 1323 975 978 845 946 1098 907 987 931 1072 1173 1165 720 414 79 218 634 518 373 510 192 0 0 0 0 0 0 0 0 0 0 0
1004 844 704 894 1036 1066 1267 1089 183 233 957 800 857 641 616 513 413 206 116 148 149 213 553 840 833 905 573 437 68 0 0 0 0 0 0 0 0 0
1307 1090 877 917 973 985 824 905 935 459 43 0 306 549 241 318 9 2 0 88 255 405 739 1027 330 268 233 131 184 13 0 0 0 0 0 0 0 0
221 731 1382 1513 1416 977 565 1054 1191 1336 1283 387 91 110 208 240 17 4 142 418 477 394 191 345 276 40 0 2 0 0 0 0 0 0 0 0 0 0
467 303 406 754 1159 1243 319 782 802 906 935 1187 1168 67 3 0 0 0 161 205 211 386 162 278 105 43 93 0 0 0 0 0 0 0 0 0 0 0
282 665 764 532 199 160 84 917 1144 1027 867 622 896 1006 794 544 399 44 2 294 379 368 313 156 79 0 22 131 51 0 0 0 0 0 0 0 0 0
821 1005 1082 504 0 0 0 0 1 0 3 197 362 584 784 899 902 725 313 91 280 504 548 65 200 113 12 18 113 50 0 0 0 0 0 0 0 0
0 0 0 0 0 0 0 0 0 0 0 0 3 114 275 404 513 566 551 617 497 379 299 244 125 232 48 207 180 87 110 0 0 0 0 0 0 0
0 0 0 0 0 0 0 5 0 0 0 81 256 189 112 94 148 236 320 350 200 263 67 214 272 263 273 234 373 417 186 440 4 0 0 0 0 0
0 0 0 0 0 0 117 264 331 204 0 0 46 221 217 116 53 41 99 164 193 247 242 99 33 209 321 327 315 484 551 287 292 62 0 0 0 0
0 0 0 0 0 0 0 105 648 684 727 460 229 206 214 183 97 67 54 62 102 192 245 211 0 0 567 753 733 669 457 793 698 181 23 114 136 9
0 0 0 0 0 0 0 0 339 747 840 492 389 326 260 207 157 170 225 215 251 269 268 138 0 0 0 0 44 217 981 651 523 363 285 246 568 345
0 0 0 0 0 0 0 0 0 51 538 945 799 736 695 521 411 410 335 248 274 285 242 24 0 0 0 48 20 55 0 1040 452 554 402 2 0 0
0 0 0 0 0 0 0 0 0 0 26 207 656 881 843 659 665 616 474 459 357 322 321 249 98 26 9 33 105 200 257 3 81 548 235 73 13 0
0 0 0 0 1 0 0 0 0 5 111 392 588 761 654 582 648 637 384 45 37 168 306 380 63 0 2 49 173 128 70 40 1 4 1 28 3 109
0 0 0 0 0 0 26 38 44 104 349 578 515 686 781 639 609 567 449 392 296 393 296 154 102 28 121 156 231 269 213 171 5 2 3 12 3 0

GFSNE_con_sbcape_087.txt.gz
CAPE
394 447 479 495 137 519 631 488 200 476 460 916 1282 1043 1385 1196 1166 1503 1348 1491 1828 1817 1625 1001 589 373 607 268 72 3 0 0 0 0 0 0 0 0
106 144 95 720 378 728 737 604 229 179 488 366 1263 1847 1558 763 749 922 932 1175 1609 1739 1538 793 469 345 447 232 11 0 0 0 0 0 0 0 0 0
150 410 771 641 1014 980 845 556 825 671 706 526 958 761 781 724 644 624 675 1099 1527 1703 250 805 305 273 279 379 18 0 0 0 0 0 0 0 0 0
432 289 416 621 613 822 983 801 904 828 904 935 621 641 755 612 518 792 986 1142 835 823 414 249 204 122 79 284 22 0 0 0 0 0 0 0 0 0
389 409 447 470 436 118 446 489 387 647 839 866 722 564 623 238 711 981 855 635 448 631 252 300 188 90 6 8 0 0 0 0 0 0 0 0 0 0
758 493 260 419 488 495 248 332 271 412 432 530 467 395 380 601 761 1133 1079 427 642 274 13 315 135 57 1 0 0 0 0 0 0 0 0 0 0 0
608 756 729 678 839 815 606 647 387 409 389 362 464 560 655 562 650 758 851 532 220 4 18 323 54 64 63 50 0 0 0 0 0 0 0 0 0 0
608 512 485 637 722 792 534 415 771 926 709 480 546 568 461 431 498 629 448 199 0 0 298 110 79 323 285 107 52 31 0 0 0 0 0 0 0 0
694 688 672 794 676 548 608 583 291 60 44 728 751 628 565 387 233 126 0 0 0 0 147 304 247 460 315 160 239 157 0 0 0 0 0 0 0 0
567 806 779 747 585 585 633 620 548 490 216 0 147 689 561 462 83 100 24 0 0 2 219 463 124 151 72 5 6 1 0 0 0 0 0 0 0 0
113 156 652 897 1027 992 249 588 701 723 778 572 83 140 141 123 16 0 15 65 471 348 152 305 111 72 0 1 0 0 0 0 0 0 0 0 0 0
330 257 210 143 418 546 116 515 657 687 706 681 579 67 7 0 0 0 146 165 463 473 221 299 38 8 59 0 0 0 0 0 0 0 0 0 0 0
391 386 459 481 0 0 0 46 489 384 631 398 511 562 592 543 287 7 0 98 472 474 510 150 58 0 0 51 0 0 0 0 0 0 0 0 0 0
16 171 117 10 0 0 0 0 0 0 0 0 44 206 259 318 459 486 217 17 206 502 629 55 145 68 7 2 29 10 0 0 0 0 0 0 0 0
0 0 0 0 0 0 0 0 0 0 0 0 14 59 97 142 129 158 241 396 156 150 184 218 106 312 25 206 219 137 0 0 0 0 0 0 0 0
0 0 0 0 0 0 0 0 0 0 0 0 56 170 221 193 113 104 96 143 54 222 256 283 224 95 210 206 139 129 84 6 0 0 0 0 0 0
0 0 0 0 0 0 0 0 0 35 39 0 0 45 228 331 312 213 52 33 28 127 199 74 0 3 41 69 69 38 75 66 6 6 0 0 0 0
0 0 0 0 0 0 0 0 0 0 13 274 260 133 281 390 364 279 82 1 0 19 63 81 0 0 0 0 10 22 0 14 70 37 0 29 94 15
0 0 0 0 0 0 0 0 0 0 0 20 311 482 451 358 182 150 160 55 3 9 42 74 8 0 0 0 0 0 76 99 134 47 56 0 253 246
0 0 0 0 0 0 0 0 0 0 0 0 0 137 380 595 600 474 342 275 230 196 174 202 78 9 6 23 5 0 0 259 238 244 164 56 6 0
0 0 0 0 0 0 6 4 1 0 0 0 0 1 66 378 431 558 577 517 419 386 289 366 316 79 7 0 1 17 40 1 3 198 146 91 59 2
1 0 0 0 0 4 0 2 3 3 11 28 34 19 142 308 351 481 623 618 526 366 383 293 135 8 1 0 21 77 37 14 1 2 2 24 68 131
6 8 3 1 0 0 1 0 0 0 0 3 0 0 9 158 165 196 231 135 204 292 111 69 194 34 59 1 62 92 100 89 16 1 0 1 1 0

GFSNE_con_sbcape_093.txt.gz
CAPE
1800 2031 1515 1428 1924 1639 1853 2319 1996 1746 1788 2577 2800 2946 2472 2508 2017 2532 3125 1898 1069 963 156 225 403 338 336 325 238 33 0 0 0 0 0 0 0 0
1497 1733 1841 1303 1744 2068 2100 1895 1935 1864 1611 1938 2229 2489 2829 2388 1625 2489 2670 1644 935 423 65 0 116 221 229 167 184 49 0 0 0 0 0 0 0 0
1644 1697 1742 2009 1488 1795 2326 2063 1988 1948 1653 1620 2040 2095 2702 2726 2122 2057 1747 2603 1748 832 490 76 8 122 112 133 57 62 1 0 0 0 0 0 0 0
1796 1580 1521 1275 2015 2059 1836 2622 2165 2198 1647 1676 1607 1353 1961 2224 2317 2545 2027 1492 1946 1455 897 275 0 72 1 13 0 0 0 0 0 0 0 0 0 0
1473 1758 1653 1765 1888 1292 1656 1366 1179 1557 1629 1696 1593 1679 1882 1873 2153 1945 2187 2120 1134 405 272 20 182 297 139 0 14 0 0 0 0 0 0 0 0 0
1623 1607 1770 1661 1848 2136 1895 2074 1694 1792 1666 2018 1769 1819 1886 2103 2375 2073 1843 1813 1956 1712 687 59 150 349 231 305 156 112 1 0 0 0 0 0 0 0
1354 1429 1713 1555 1132 1131 1401 2141 1949 1928 1530 1487 1453 1510 1542 1457 1723 1583 2147 2159 2184 1695 1191 1043 592 738 539 294 511 344 96 0 0 0 0 0 0 0
1781 1931 1720 875 776 228 55 138 786 2070 1925 1286 1238 1551 2325 2176 1736 1744 1692 1748 1399 976 1506 823 512 701 629 423 286 272 7 0 0 0 0 0 0 0
2225 2377 2114 1384 1263 1717 934 264 91 0 32 2066 1863 2399 2460 2764 2492 2592 2241 2094 1878 1285 1459 938 618 699 815 479 553 347 1 0 0 0 0 0 0 0
1520 1681 2027 2047 1809 1690 1914 1925 1986 2229 1850 1053 1362 1907 2255 2292 2496 2315 2239 2071 1730 1308 2028 1362 832 894 1043 1035 669 347 0 0 0 0 0 0 0 0
590 863 1030 1206 0 1 790 1727 1944 1976 1328 790 532 520 481 120 177 1052 1552 1486 1268 1100 1371 1458 1252 1134 1309 1221 1137 346 0 0 0 0 0 0 0 0
94 0 0 0 0 0 0 712 1244 1748 1559 1810 1789 1159 178 1248 65 209 1423 1588 1444 1394 1355 1363 1191 1239 1225 972 1101 1093 1081 42 0 0 0 0 0 0
0 0 0 0 0 0 0 0 0 0 0 0 250 1030 1367 1558 1594 1697 1655 1529 1507 1541 1343 1680 1500 1360 1386 1366 1244 1210 1217 1206 1191 714 0 0 0 0
0 0 0 0 0 0 0 0 0 0 0 0 0 0 12 53 81 126 1178 1596 1597 1861 2026 2686 1624 1490 1553 1459 1328 1182 1236 1306 1333 1162 1053 283 0 0
0 0 0 0 0 0 0 0 0 0 0 0 0 0 0 0 0 165 284 1381 1763 1683 1491 1660 1706 1985 1598 1555 1488 1508 1390 1327 1245 1211 1130 993 891 668
0 0 0 0 0 0 0 0 0 0 0 0 0 0 0 0 0 0 13 53 105 474 1223 1621 1868 2069 1785 1570 1375 1297 1337 1357 1290 1320 1303 1230 1027 811
0 0 0 0 0 0 0 0 0 0 0 0 0 0 0 0 0 0 2 44 138 256 347 288 1660 2107 1605 2051 1287 1182 1310 1370 1349 1382 1549 1437 1026 925
0 0 0 0 0 0 0 0 0 0 0 0 0 0 0 0 0 2 3 8 40 212 314 496 902 955 815 1345 843 1078 1212 1329 1308 1674 1593 1445 1100 937
0 0 0 0 0 0 0 0 0 0 7 0 0 0 10 8 6 4 4 9 9 18 98 213 324 399 535 433 863 17 1134 1183 1320 1364 1228 1255 1344 1298
0 0 0 0 0 0 0 0 0 0 0 0 6 0 0 5 6 11 29 39 56 48 34 172 204 449 1029 556 552 934 5 1143 1215 1148 968 861 1192 639
0 0 0 0 0 0 0 0 0 1 2 2 2 1 0 1 0 2 9 10 4 31 34 60 287 350 845 1069 450 605 926 8 283 1148 1190 1014 1169 1279
0 0 0 0 0 0 0 1 1 1 1 1 5 7 8 8 14 24 31 20 37 37 64 66 181 949 461 747 194 376 748 930 468 0 0 31 1149 1052
0 0 0 1 1 1 2 2 0 1 2 2 3 9 19 40 23 9 8 17 35 45 33 25 27 546 622 570 179 221 556 688 654 262 85 0 0 0

GFSNE_con_sbcape_096.txt.gz
CAPE
1729 1930 1858 1214 1424 1604 1997 2236 2169 1623 1575 3025 2209 2990 2436 2346 1753 2083 2313 1607 1371 443 41 1 20 231 318 548 654 240 27 0 0 0 0 0 0 0
1441 1499 1803 962 1255 1301 1409 1451 1757 1915 1584 1918 1919 2253 2549 2202 1584 1871 1779 1314 921 340 709 505 1 145 206 215 238 194 40 0 0 0 0 0 0 0
1799 1745 1764 1690 1191 962 1220 1374 1212 1224 1373 1345 1769 1828 2665 2438 2312 2312 1725 1557 842 962 1060 831 159 45 69 94 70 55 60 3 0 0 0 0 0 0
1199 1443 1566 976 1504 1581 1160 1763 1965 1677 1341 1813 2159 1413 2103 2088 2055 2577 1719 1026 957 497 344 212 28 16 14 0 0 0 0 1 0 0 0 0 0 0
1240 1224 1447 1336 1594 1027 931 904 748 804 1228 1054 1081 912 1279 1836 1934 2850 1705 1812 1404 458 383 133 20 27 191 98 17 2 0 0 0 0 0 0 0 0
1311 1178 1080 1211 1583 1766 1988 1825 1911 1843 1875 1098 837 619 734 1478 1555 1087 669 711 1134 967 768 420 211 369 383 348 184 221 47 0 0 0 0 0 0 0
1373 1451 1362 1147 970 1206 1417 2086 2308 1647 909 517 621 523 621 939 1674 879 906 845 1301 1081 759 1007 439 161 127 36 28 74 102 0 0 0 0 0 0 0
1849 2067 1832 1169 929 701 530 395 563 2300 2062 1615 1100 1227 2639 1963 1696 1397 1312 978 1044 827 1217 605 384 325 217 248 135 247 276 0 0 0 0 0 0 0
2021 1962 1724 814 1214 1357 588 333 131 5 0 2472 1904 1933 2903 2915 2429 2415 2589 2054 1799 1181 1297 789 816 767 365 266 389 398 323 43 0 0 0 0 0 0
1753 1761 1956 1787 0 245 1686 1522 1577 1863 2184 1554 1749 2179 2671 2640 3149 2664 2674 2846 2290 1731 2051 1036 781 843 805 663 569 485 229 4 0 0 0 0 0 0
541 29 31 0 0 0 817 1808 1863 1821 1424 819 635 685 673 527 348 1215 1451 1361 1229 1050 1176 828 729 747 739 773 718 552 364 36 0 0 0 0 0 0
329 5 0 0 0 0 0 206 803 1200 684 440 838 824 315 973 156 910 1899 1761 1591 1406 1460 1617 1521 1406 1293 1015 721 733 896 25 10 0 0 0 0 0
0 0 0 0 0 0 0 0 0 0 0 0 61 357 681 1089 1251 1612 3068 2889 1967 1811 1531 1902 1623 1772 1891 1581 1413 1077 836 818 1041 557 0 0 0 0
0 0 0 0 0 0 0 0 0 0 0 3 15 27 39 42 26 43 593 507 495 1564 1849 2813 2172 2119 2149 1709 1608 1328 1344 1233 1252 1309 1349 747 0 0
0 0 0 0 0 0 0 0 0 0 0 3 11 3 1 0 0 121 692 1788 2130 1676 938 2289 2183 2413 2225 2237 2081 1903 1610 1585 1533 1408 1616 1554 1555 1355
0 0 0 0 0 0 0 0 0 0 0 0 0 0 0 0 0 0 0 0 0 0 874 1325 2369 2749 1902 2678 2846 1912 1906 1916 1570 1648 1663 1734 1974 1669
0 0 0 0 0 0 0 0 0 0 0 0 0 0 0 0 0 0 0 0 0 0 0 0 912 1515 1159 2506 1374 1188 1524 1583 1773 1451 3016 1909 1855 1814
0 0 0 0 0 0 0 0 0 0 0 0 0 0 0 0 0 0 0 0 0 0 0 1 30 79 112 289 234 639 821 951 1235 1512 1975 1623 1623 1984
0 0 0 0 0 0 0 0 0 0 0 0 0 0 0 0 0 0 0 0 0 1 1 4 9 70 364 251 145 11 69 161 787 1516 1995 1929 1950 1715
0 0 0 0 0 0 0 0 0 0 0 0 0 0 0 0 0 0 0 0 0 0 0 0 0 0 25 47 121 420 40 856 379 646 789 1093 1320 908
0 0 0 0 0 0 0 0 0 0 0 0 0 0 0 0 0 0 0 0 0 7 0 0 0 1 14 131 167 226 211 49 345 872 1090 1208 1178 1242
0 0 0 0 0 0 0 0 0 0 0 0 0 0 0 0 0 2 3 3 2 2 2 2 12 13 13 16 40 208 378 347 236 0 0 172 1275 719
0 0 0 0 0 0 0 0 0 0 0 0 0 0 0 0 1 2 4 3 3 11 16 11 6 4 6 12 19 39 195 399 204 346 367 17 3 0

GFSNE_con_sbcape_102.txt.gz
CAPE
1788 3306 3377 2060 1363 1901 1991 2144 1458 470 0 0 0 94 1 0 8 2310 3123 2188 1556 582 118 235 270 106 266 425 690 832 883 600 286 57 0 0 0 0
1601 2285 2786 2436 2141 1509 2007 1269 1603 1251 469 2 0 370 5 248 86 3003 3116 1996 1967 1207 277 265 450 218 57 217 323 401 393 375 257 56 0 0 0 0
2109 1975 1798 2521 2221 1835 1538 1262 1538 1487 1565 1325 592 272 178 216 2729 2993 3180 2713 1961 295 380 244 465 247 1 55 77 102 129 153 138 79 0 0 0 0
1988 2491 2265 976 2232 2881 2471 2335 2350 2260 2077 1769 1865 1973 2266 2859 3043 3903 3201 1776 1608 1050 341 336 456 52 0 0 4 8 0 0 0 0 0 0 0 0
2209 2121 2211 1922 1975 2094 2272 2121 1648 1500 1329 1413 1395 1064 993 1025 1066 1934 2724 2016 2362 477 308 197 287 8 1 0 0 0 0 0 0 0 0 0 0 0
1966 2371 2355 2267 1698 1909 1623 1872 1637 1917 1704 1702 1747 1612 1231 1308 1972 992 593 1791 1636 1323 727 540 81 60 0 0 0 0 0 0 0 0 0 0 0 0
1979 1800 1928 1001 515 704 1499 1881 1744 1612 1395 1205 1101 1149 1506 1640 1676 1600 1909 1295 1201 1337 908 1214 830 712 593 499 1 0 0 0 0 0 0 0 0 0
2015 2498 2703 710 929 344 283 213 226 1503 1512 2102 1829 1462 1600 1878 1801 2052 1901 1811 1784 1992 1708 1176 995 1280 1411 1004 502 76 38 0 0 0 0 0 0 0
1425 1721 1423 232 0 4 452 255 177 182 4 922 1454 1608 1899 1963 2475 2128 2106 2243 1913 1555 1304 1380 1426 1502 1369 1284 30 53 74 0 0 0 0 0 0 0
1611 1507 1250 0 0 0 0 976 1837 2129 1433 742 628 1499 2179 2205 1768 1791 1769 1675 1665 1560 1632 1636 1405 1636 1749 1791 1028 17 1 0 0 0 0 0 0 0
42 0 0 0 0 0 0 35 354 1192 51 20 7 0 0 17 9 332 685 1194 904 1021 1259 1458 1470 1261 1481 1670 1261 567 102 3 0 0 0 0 0 0
0 0 0 0 0 0 0 0 0 14 0 0 0 0 1 240 412 61 683 1013 1045 903 1583 639 166 259 190 781 907 1038 1645 1585 599 5 0 0 0 0
0 0 0 0 0 0 0 0 0 0 0 0 0 0 154 471 378 734 1347 1199 883 693 521 48 87 319 852 895 1190 973 876 875 1468 1280 1128 212 0 0
0 0 0 0 0 0 0 0 0 0 0 0 0 0 0 0 0 0 43 221 462 679 459 643 596 487 584 656 575 776 644 954 1195 1041 1216 1771 400 0
0 0 0 0 0 0 0 0 0 0 0 0 0 0 0 0 0 0 0 0 0 1 0 142 616 213 586 565 256 221 222 35 358 1344 1058 1362 1221 782
0 0 0 0 0 0 0 0 0 0 0 0 0 0 0 0 0 0 0 0 0 0 0 0 0 0 0 0 0 0 0 0 41 603 619 1261 1447 1364
0 0 0 0 0 0 0 0 0 0 0 0 0 0 0 0 0 0 0 0 0 0 0 0 0 0 0 0 0 0 0 0 0 0 22 20 39 137
0 0 0 0 0 0 0 0 0 0 0 0 0 0 0 0 0 0 0 0 0 0 0 0 0 0 0 0 0 0 0 0 0 0 0 0 0 7
0 0 0 0 0 0 0 0 0 0 0 0 0 0 0 0 0 0 0 0 0 0 0 0 0 0 0 0 0 0 0 0 0 0 0 0 0 0
0 0 0 0 0 0 0 0 0 0 0 0 0 0 0 0 0 0 0 0 0 0 0 0 0 0 0 0 0 0 0 0 0 0 0 0 0 0
0 0 0 0 0 0 0 0 0 0 0 0 0 0 0 0 0 0 0 0 0 0 0 0 0 0 0 0 0 0 0 0 0 0 0 0 0 0
0 0 0 0 0 0 0 0 0 0 0 0 0 0 0 0 0 0 0 0 0 0 0 0 0 0 0 1 0 0 0 0 0 0 0 0 0 0
0 0 0 0 0 0 0 0 0 0 0 0 0 0 0 0 0 0 0 0 0 0 0 0 0 0 0 0 0 0 0 0 0 0 0 0 0 0

GFSNE_con_sbcape_105.txt.gz
CAPE
30 884 1569 1456 1130 807 369 0 494 282 91 0 0 5 2 8 2 0 0 0 1060 960 857 339 41 268 360 119 412 709 805 737 509 233 10 0 0 0
3 1156 958 1088 902 763 807 458 631 113 391 12 0 38 4 0 2 28 0 184 1465 1640 1443 502 156 223 448 11 79 259 346 359 354 241 54 0 0 0
901 1040 832 908 1352 1413 912 955 860 912 571 875 24 0 4 10 0 150 647 1050 1532 1240 858 233 101 146 460 114 0 2 56 92 128 115 67 0 0 0
747 918 838 974 728 752 866 873 690 709 548 263 656 701 94 303 401 750 1564 2317 1847 1231 336 160 1 105 232 30 0 0 0 0 0 0 0 0 0 0
697 893 932 1017 1044 629 425 334 778 777 624 673 759 445 316 810 880 648 449 1294 891 1115 634 361 264 0 50 0 0 0 0 0 0 0 0 0 0 0
1031 872 971 841 631 616 599 563 695 329 491 460 466 482 660 883 1049 1022 1388 1065 721 1071 726 779 659 419 191 121 27 0 0 0 0 0 0 0 0 0
764 890 553 316 119 192 458 564 575 362 317 260 322 367 358 558 879 1098 1298 1010 1055 818 987 750 648 728 798 947 1078 729 1 0 0 0 0 0 0 0
680 420 327 0 0 0 0 35 2 152 186 489 558 704 593 696 989 1231 1344 1279 1346 769 999 962 873 948 1073 1140 1239 184 0 0 0 0 0 0 0 0
548 696 137 0 0 0 0 336 463 82 32 168 288 389 707 678 953 1064 1054 1241 1096 851 981 1114 1042 1011 1084 1167 1264 547 4 0 0 0 0 0 0 0
0 5 0 0 0 0 0 31 149 0 0 0 39 40 65 46 21 231 560 707 703 627 435 549 643 395 360 358 777 327 191 13 0 0 0 0 0 0
0 0 0 0 0 0 0 0 0 0 0 0 0 0 0 0 0 0 0 230 343 357 420 653 498 5 0 28 221 594 529 339 34 0 0 0 0 0
0 0 0 0 0 0 0 0 0 0 0 0 0 0 0 0 0 0 62 218 225 201 458 328 9 0 22 59 143 558 376 403 399 403 572 167 31 0
0 0 0 0 0 0 0 0 0 0 0 0 0 0 0 0 0 0 0 21 45 58 4 0 2 1 19 84 189 218 124 274 205 378 380 306 415 0
0 0 0 0 0 0 0 0 0 0 0 0 0 0 0 0 0 0 0 0 0 0 0 0 0 0 0 0 2 7 9 14 18 0 0 348 310 6
0 0 0 0 0 0 0 0 0 0 0 0 0 0 0 0 0 0 0 0 0 0 0 0 0 0 0 0 0 0 0 0 0 0 0 0 16 133
0 0 0 0 0 0 0 0 0 0 0 0 0 0 0 0 0 0 0 0 0 0 0 0 0 0 0 0 0 0 0 0 0 0 0 0 0 0
0 0 0 0 0 0 0 0 0 0 0 0 0 0 0 0 0 0 0 0 0 0 0 0 0 0 0 0 0 0 0 0 0 0 0 0 0 0
0 0 0 0 0 0 0 0 0 0 0 0 0 0 0 0 0 0 0 0 0 0 0 0 0 0 0 0 0 0 0 0 0 0 0 0 0 0
0 0 0 0 0 0 0 0 0 0 0 0 0 0 0 0 0 0 0 0 0 0 0 0 0 0 0 0 0 0 0 0 0 0 0 0 0 0
0 0 0 0 0 0 0 0 0 0 0 0 0 0 0 0 0 0 0 0 0 0 0 0 0 0 0 0 0 0 0 0 0 0 0 0 0 0
0 0 0 0 0 0 0 0 0 0 0 0 0 0 0 0 0 0 0 0 0 0 0 0 0 0 0 0 0 0 0 0 0 0 0 0 0 0
0 0 0 0 0 0 0 0 0 0 0 0 0 0 0 0 0 0 0 0 0 0 0 0 0 0 0 0 0 0 0 0 0 1 10 7 0 0
0 0 0 0 0 0 0 0 0 0 0 0 0 0 0 0 0 0 0 0 0 0 0 0 1 1 2 3 3 2 1 0 0 0 0 0 9 9

GFSNE_con_sbcape_108.txt.gz
CAPE
2 571 806 777 410 137 96 0 318 263 144 37 13 0 7 5 6 0 0 0 4 28 97 414 148 245 55 148 11 213 627 693 601 427 153 9 3 19
0 395 393 431 493 441 294 23 285 97 217 102 13 0 25 65 0 0 0 25 194 294 648 198 32 14 100 83 107 0 137 289 265 237 176 15 0 0
396 414 504 317 557 724 461 464 306 233 301 326 32 17 13 87 143 41 44 223 1031 1195 235 320 228 0 0 0 10 0 0 5 27 53 74 35 0 0
403 432 538 581 377 361 349 354 361 282 303 101 130 305 204 136 305 393 643 1212 870 724 818 285 505 378 206 0 0 0 0 0 0 0 0 0 0 0
577 380 521 446 562 409 149 96 367 287 268 376 420 196 210 417 768 795 876 907 898 945 986 554 308 408 442 265 140 2 0 0 0 0 0 0 0 0
508 681 467 541 365 312 373 243 320 123 91 69 49 14 258 399 530 692 1013 696 774 823 520 542 572 601 608 716 596 467 27 0 0 0 0 0 0 0
438 409 44 9 2 6 97 203 303 118 96 37 60 54 58 156 401 649 808 760 651 480 599 564 679 653 784 765 670 316 0 0 0 0 0 0 0 0
457 294 0 0 0 0 0 0 15 122 66 109 158 225 176 226 396 609 711 666 682 425 564 678 683 616 526 392 101 223 119 177 1 0 0 0 0 0
242 183 0 0 0 0 0 140 11 0 0 18 127 109 173 241 269 204 139 307 375 413 614 591 306 473 67 11 0 170 231 36 0 17 0 0 0 0
0 0 0 0 0 0 0 0 0 0 0 0 0 0 0 0 0 0 0 46 183 226 206 338 266 279 7 0 13 2 60 14 0 0 0 0 0 0
0 0 0 0 0 0 0 0 0 0 0 0 0 0 0 0 0 0 0 69 61 123 19 60 30 3 0 0 17 5 197 52 0 0 0 0 0 0
0 0 0 0 0 0 0 0 0 0 0 0 0 0 0 0 0 0 0 0 0 0 0 0 0 0 0 0 0 7 0 0 0 0 0 0 0 0
0 0 0 0 0 0 0 0 0 0 0 0 0 0 0 0 0 0 0 0 0 0 0 0 0 0 0 0 0 0 0 0 0 0 0 0 0 0
0 0 0 0 0 0 0 0 0 0 0 0 0 0 0 0 0 0 0 0 0 0 0 0 0 0 0 0 0 0 0 0 0 0 0 0 0 0
0 0 0 0 0 0 0 0 0 0 0 0 0 0 0 0 0 0 0 0 0 0 0 0 0 0 0 0 0 0 0 0 0 0 0 0 0 0
0 0 0 0 0 0 0 0 0 0 0 0 0 0 0 0 0 0 0 0 0 0 0 0 0 0 0 0 0 0 0 0 0 0 0 0 0 0
0 0 0 0 0 0 0 0 0 0 0 0 0 0 0 0 0 0 0 0 0 0 0 0 0 0 0 0 0 0 0 0 0 0 0 0 0 0
0 0 0 0 0 0 0 0 0 0 0 0 0 0 0 0 0 0 0 0 0 0 0 0 0 0 0 0 0 0 0 0 0 0 0 0 0 0
0 0 0 0 0 0 0 0 0 0 0 0 0 0 0 0 0 0 0 0 0 0 0 0 0 0 0 0 0 0 0 0 0 0 0 0 0 0
0 0 0 0 0 0 0 0 0 0 0 0 0 0 0 0 0 0 0 0 0 0 0 0 0 0 0 0 0 0 0 0 0 0 0 0 0 0
0 0 0 0 0 0 0 0 0 0 0 0 0 0 0 0 0 0 0 0 0 0 0 0 0 5 0 0 0 0 0 0 3 1 1 1 0 0
0 0 0 0 0 0 0 0 0 0 0 0 0 0 0 0 0 0 0 0 1 1 1 0 0 0 1 1 1 0 0 0 0 5 14 5 3 2
0 0 0 0 0 0 0 0 0 0 0 0 0 0 0 0 0 0 1 1 2 0 0 0 0 0 1 2 4 3 4 0 0 0 0 8 25 36

GFSNE_con_sbcape_111.txt.gz
CAPE
0 59 591 378 26 4 11 0 149 60 44 14 0 0 0 0 6 41 8 0 0 3 225 0 1 3 29 23 206 29 165 447 585 639 509 298 109 85
0 46 145 297 290 177 119 14 73 63 75 2 0 0 0 0 40 71 0 14 205 718 140 0 7 32 0 1 42 144 46 0 82 220 275 175 35 0
218 325 246 177 178 316 188 228 122 45 125 41 8 0 0 99 165 249 456 722 743 596 558 295 331 225 51 0 0 0 0 0 0 0 12 66 59 0
182 129 257 472 263 22 161 212 153 111 134 39 3 142 153 123 212 303 750 880 619 789 641 495 590 519 436 515 388 200 0 0 0 0 0 0 3 1
436 356 325 346 328 294 48 0 15 185 56 91 141 54 51 88 368 360 680 621 663 750 725 527 453 571 569 229 141 0 0 0 0 0 0 0 0 0
457 477 454 413 267 189 200 162 101 141 0 0 0 0 18 53 127 272 458 375 607 507 460 402 459 588 525 161 24 0 0 0 0 0 0 0 0 0
410 359 59 34 8 11 103 130 105 50 66 16 0 0 15 46 145 251 351 363 248 268 345 346 386 329 138 0 0 0 0 0 0 0 0 0 0 0
309 37 0 0 0 0 0 0 1 26 15 22 12 69 38 99 195 261 268 113 124 208 262 410 243 237 43 0 0 0 0 0 0 0 0 0 0 0
201 115 0 0 0 0 0 0 0 0 0 8 29 10 2 65 0 0 0 0 17 54 285 327 100 106 0 0 0 0 0 0 0 0 0 0 0 0
0 0 0 0 0 0 0 0 0 0 0 0 0 0 0 0 0 0 0 0 0 2 0 75 20 0 0 0 0 0 0 0 0 0 0 0 0 0
0 0 0 0 0 0 0 0 0 0 0 0 0 0 0 0 0 0 0 0 0 0 0 0 0 0 0 0 0 0 0 0 0 0 0 0 0 0
0 0 0 0 0 0 0 0 0 0 0 0 0 0 0 0 0 0 0 0 0 0 0 0 0 0 0 0 0 0 0 0 0 0 0 0 0 0
0 0 0 0 0 0 0 0 0 0 0 0 0 0 0 0 0 0 0 0 0 0 0 0 0 0 0 0 0 0 0 0 0 0 0 0 0 0
0 0 0 0 0 0 0 0 0 0 0 0 0 0 0 0 0 0 0 0 0 0 0 0 0 0 0 0 0 0 0 0 0 0 0 0 0 0
0 0 0 0 0 0 0 0 0 0 0 0 0 0 0 0 0 0 0 0 0 0 0 0 0 0 0 0 0 0 0 0 0 0 0 0 0 0
0 0 0 0 0 0 0 0 0 0 0 0 0 0 0 0 0 0 0 0 0 0 0 0 0 0 0 0 0 0 0 0 0 0 0 0 0 0
0 0 0 0 0 0 0 0 0 0 0 0 0 0 0 0 0 0 0 0 0 0 0 0 0 0 0 0 0 0 0 0 0 0 0 0 0 0
0 0 0 0 0 0 0 0 0 0 0 0 0 0 0 0 0 0 0 0 0 0 0 0 0 0 0 0 0 0 0 0 0 0 0 0 0 0
0 0 0 0 0 0 0 0 0 0 0 0 0 0 0 0 0 0 0 0 0 0 0 0 0 1 0 0 0 0 0 0 0 0 0 0 0 0
0 0 0 0 0 0 0 0 0 0 0 0 0 0 0 0 0 0 0 0 0 0 0 0 0 0 2 1 2 0 0 0 0 0 0 0 0 1
0 0 0 0 0 0 0 0 0 0 0 0 0 0 0 0 0 0 0 0 0 0 0 0 0 3 0 0 0 0 0 0 0 0 0 1 0 0
0 0 0 0 0 0 0 0 0 0 0 0 0 0 0 0 0 0 0 0 0 0 0 0 0 0 0 1 2 0 0 0 0 7 13 6 5 2
0 0 0 0 0 0 0 0 0 0 0 0 0 0 0 0 0 0 0 0 0 0 0 0 0 0 0 0 1 0 4 3 3 0 0 7 10 12

GFSNE_con_sbcape_114.txt.gz
CAPE
86 195 851 746 24 44 110 142 695 694 638 475 252 28 141 395 459 830 591 61 268 357 17 4 39 0 0 47 18 64 76 281 529 613 635 574 545 322
0 142 453 559 570 322 311 42 236 452 658 269 391 96 278 336 414 841 905 485 558 246 0 48 229 0 0 0 0 0 0 0 4 92 243 242 179 164
324 291 592 345 350 479 444 336 250 144 424 433 199 222 405 678 895 784 1069 1293 1133 447 314 301 201 0 0 0 0 0 0 0 0 0 5 52 55 37
388 311 365 440 537 323 307 615 424 205 392 389 67 520 490 508 543 886 979 956 1186 625 467 321 307 251 124 0 0 0 0 0 0 0 0 0 0 1
754 521 638 518 626 545 355 310 132 274 226 270 388 208 185 250 659 646 899 1043 784 523 478 387 346 299 15 0 0 0 0 0 0 0 0 0 0 0
614 658 663 844 768 560 360 363 265 344 104 164 88 26 49 188 269 581 961 749 546 722 363 303 292 191 0 0 0 0 0 0 0 0 0 0 0 0
309 625 332 58 22 64 336 264 246 408 267 198 69 112 209 255 460 487 650 314 233 685 495 758 933 553 11 0 0 0 0 0 0 0 0 0 0 0
308 372 1 0 0 0 0 0 1 219 244 178 141 320 299 284 219 0 113 74 128 102 288 957 247 22 11 0 0 0 0 0 0 0 0 0 0 0
161 57 0 0 0 0 0 0 0 0 0 121 173 79 0 13 0 0 0 33 115 0 39 734 44 0 2 0 0 0 0 0 0 0 0 0 0 0
0 0 0 0 0 0 2 8 0 0 0 0 0 0 0 0 0 0 0 2 92 0 0 0 0 0 6 0 0 0 0 0 0 0 0 0 0 0
0 0 0 0 0 0 0 0 0 0 0 0 0 0 0 0 0 0 0 0 13 0 0 1 0 0 0 0 0 0 0 0 0 0 0 0 0 0
0 0 0 0 0 0 0 0 0 0 0 0 0 0 0 0 0 0 0 0 1 0 0 0 0 0 0 0 0 0 0 0 0 0 0 0 0 0
0 0 0 0 0 0 0 0 0 0 0 0 0 0 0 0 0 0 0 0 0 0 0 0 0 0 0 0 0 0 0 0 0 0 0 0 0 0
0 0 0 0 0 0 0 0 0 0 0 0 0 0 0 0 0 0 0 0 0 0 0 0 0 0 0 0 0 0 0 0 0 0 0 0 0 0
0 0 0 0 0 0 0 0 0 0 0 0 0 0 0 0 0 0 0 0 0 0 0 0 0 0 0 0 0 0 0 0 0 0 0 0 0 0
0 0 0 0 0 0 0 0 0 0 0 0 0 0 0 0 0 0 0 0 0 0 0 0 0 0 0 0 0 0 0 0 0 0 0 0 0 0
0 0 0 0 0 0 0 0 0 0 0 0 0 0 0 0 0 0 0 0 0 0 0 0 0 0 0 0 0 0 0 0 0 0 0 0 0 0
0 0 0 0 0 0 0 0 0 0 0 0 0 0 0 0 0 0 0 0 0 0 0 0 0 0 0 0 0 0 0 0 0 0 0 0 0 0
0 0 0 0 0 0 0 0 0 0 0 0 0 0 0 0 0 0 0 0 0 0 0 0 0 0 0 0 0 0 0 0 0 0 0 0 0 0
0 0 0 0 0 0 0 0 0 0 0 0 0 0 0 0 0 0 0 0 0 0 0 0 0 0 0 0 0 0 0 1 2 2 2 1 0 1
0 0 0 0 0 0 0 0 0 0 0 0 0 0 0 0 0 0 0 0 0 0 0 0 1 0 0 0 0 0 0 0 0 0 1 1 1 0
0 0 0 0 0 0 0 0 0 0 0 0 0 0 0 0 0 0 0 0 0 0 0 1 1 2 2 2 3 5 2 1 0 0 0 0 6 7
0 0 0 0 0 0 0 0 0 0 0 0 0 0 0 0 0 0 0 0 1 1 3 3 1 0 1 1 2 4 7 6 10 4 0 0 7 16

GFSNE_con_sbcape_117.txt.gz
CAPE
1464 1306 1843 1890 1027 1069 1149 883 898 610 645 949 893 1190 1149 1595 1075 2123 1794 499 323 130 0 0 0 7 0 0 0 18 64 122 165 349 723 813 908 761
1205 813 1369 1594 1608 1442 1377 1166 1083 1119 748 858 856 1242 1303 1415 1008 1529 1373 951 559 32 0 0 0 0 0 0 0 0 0 0 0 2 86 283 343 360
1472 1330 1542 1830 1255 1164 1386 1386 1307 1279 902 568 1051 882 1544 1770 1825 1471 1052 1318 1043 380 11 0 0 0 0 0 0 0 0 0 0 0 0 14 84 121
1517 1472 1402 1051 1650 2145 1364 1458 1351 1358 1076 1212 1159 995 1466 1340 1288 1491 1157 834 1264 337 170 116 0 0 0 0 0 0 0 0 0 0 0 0 0 0
1429 1506 1430 1364 1799 1113 2312 2115 1462 1141 1494 1252 1215 1080 967 666 865 1206 1602 1490 430 451 285 281 0 0 0 0 0 0 0 0 0 0 0 0 0 0
1329 1540 1705 1637 1679 1591 1586 1826 1365 1875 1909 1698 1473 1007 779 1017 1068 1215 945 908 532 972 353 83 0 0 0 0 0 0 0 0 0 0 0 0 0 0
1097 1347 1354 166 0 62 452 1458 1430 1713 2000 1806 1959 1271 1750 789 1382 959 544 525 944 244 1105 186 27 9 0 0 0 0 0 0 0 0 0 0 0 0
859 1049 247 0 0 0 1 0 5 1139 1515 1613 1511 1198 1208 836 584 107 214 359 457 0 778 69 15 0 0 0 0 0 0 0 0 0 0 0 0 0
658 1262 99 0 0 0 0 0 0 0 0 885 1037 688 152 196 0 98 438 521 494 0 36 1226 0 4 0 0 0 0 0 0 0 0 0 0 0 0
1 77 6 0 0 0 0 0 0 0 0 0 0 0 0 0 0 47 233 274 0 0 0 87 0 0 12 0 0 0 0 0 0 0 0 0 0 0
0 0 0 0 0 0 0 0 0 0 0 0 0 0 0 0 0 2 0 4 158 0 0 0 0 0 0 0 0 0 0 0 0 0 0 0 0 0
0 0 0 0 0 0 0 0 0 0 0 0 0 0 0 0 0 0 0 0 11 0 0 0 0 0 0 0 0 0 0 0 0 0 0 0 0 0
0 0 0 0 0 0 0 0 0 0 0 0 0 0 0 0 0 0 0 0 0 0 0 0 0 0 0 0 0 0 0 0 0 0 0 0 0 0
0 0 0 0 0 0 0 0 0 0 0 0 0 0 0 0 0 0 0 0 0 0 0 0 0 0 0 0 0 0 0 0 0 0 0 0 0 0
0 0 0 0 0 0 0 0 0 0 0 0 0 0 0 0 0 0 0 0 0 0 0 0 0 0 0 0 0 0 0 0 0 0 0 0 0 0
0 0 0 0 0 0 0 0 0 0 0 0 0 0 0 0 0 0 0 0 0 0 0 0 0 0 0 0 0 0 0 0 0 0 0 0 0 0
0 0 0 0 0 0 0 0 0 0 0 0 0 0 0 0 0 0 0 0 0 0 0 0 0 0 0 0 0 0 0 0 0 0 0 0 0 0
0 0 0 0 0 0 0 0 0 0 0 0 0 0 0 0 0 0 0 0 0 0 0 0 0 0 0 0 0 0 0 0 0 0 0 0 0 0
0 0 0 0 0 0 0 0 0 0 0 0 0 0 0 0 0 0 0 0 0 0 0 0 0 0 0 0 0 0 0 0 0 0 0 0 0 0
0 0 0 0 0 0 0 0 0 0 0 0 0 0 0 0 0 0 0 0 0 0 0 0 0 0 0 0 0 0 0 0 0 0 0 0 0 0
0 0 0 0 0 0 0 0 0 0 0 0 0 0 0 0 0 0 0 0 0 0 0 0 0 0 0 0 0 0 1 0 0 1 0 0 0 0
0 0 0 0 0 0 0 0 0 0 0 0 0 0 0 0 0 0 0 0 0 0 0 0 0 0 0 0 0 0 1 1 0 0 0 0 0 0
0 0 0 0 0 0 0 0 0 0 0 0 0 0 0 0 0 0 0 0 0 0 0 0 0 0 1 2 1 3 7 4 3 0 0 0 0 0

GFSNE_con_sbcape_123.txt.gz
CAPE
1583 2217 1919 619 167 325 304 222 169 92 35 610 416 1381 926 410 1234 1354 1112 96 122 0 0 0 0 0 0 0 0 1 0 0 0 0 94 414 1539 1526
1188 2173 2124 1059 1055 808 445 477 511 950 360 203 253 1173 1595 812 373 1239 920 1032 36 0 0 0 0 0 0 0 0 0 0 0 0 0 0 0 230 581
1854 1595 1591 1907 1146 616 998 1246 559 209 473 905 682 1764 1411 808 1221 1402 921 1141 349 0 0 0 0 0 0 0 0 0 0 0 0 0 0 0 8 36
1656 2318 1379 1011 2420 2312 926 2176 1939 2216 1212 2475 1695 774 2232 1797 1326 1411 1520 636 849 0 0 0 0 0 0 0 0 0 0 0 0 0 0 0 0 0
1586 1718 1552 2043 2559 1313 1790 1235 1000 1297 2336 1959 1062 1497 874 619 1693 2249 2248 2565 160 0 0 0 0 0 0 0 0 0 0 0 0 0 0 1 1 1
2058 1470 1571 1858 1684 1351 2439 2764 2377 1623 526 1009 1428 1055 1190 1420 226 559 240 565 167 26 12 0 0 0 0 0 0 0 0 0 0 0 0 0 0 0
1352 1453 1746 807 2 213 782 1838 1487 736 539 634 725 736 737 917 848 487 882 1284 1427 525 370 0 0 0 0 0 0 0 0 0 0 0 0 0 0 0
1067 1120 1271 160 6 0 0 0 31 1360 1685 2243 1604 1607 2036 2210 2257 1443 846 1383 1165 725 1650 1340 2 0 0 0 0 0 0 0 0 0 0 0 0 0
911 1138 1240 855 217 609 0 0 0 0 0 3 1135 1442 707 61 126 1138 1366 1991 2004 93 442 1538 128 0 0 0 0 0 0 0 0 0 0 0 0 0
88 115 1058 731 0 44 228 77 0 0 0 0 117 12 0 0 4 237 1061 1239 798 126 63 846 175 0 0 0 0 0 0 0 0 0 0 0 0 0
0 0 2 0 0 0 0 63 0 0 0 0 0 0 0 0 0 0 49 564 1454 1612 0 0 237 78 24 0 0 0 0 0 0 0 0 0 0 0
1 0 0 0 0 0 0 227 155 50 0 0 0 0 0 0 0 0 0 0 7 67 0 0 0 0 0 1 0 0 0 0 0 0 0 0 0 0
180 99 0 0 0 0 0 0 41 0 45 0 0 0 0 0 0 0 0 0 0 0 0 0 0 0 0 0 0 0 0 0 0 0 0 0 0 0
188 83 0 0 0 0 0 0 0 0 4 1 2 0 0 0 0 0 0 0 0 0 0 0 0 0 0 0 0 0 0 0 0 0 0 0 0 0
0 0 0 0 0 0 0 0 0 0 3 1 0 0 0 0 0 0 0 0 0 0 0 0 0 0 0 0 0 0 0 0 0 0 0 0 0 0
0 0 0 0 0 0 0 0 0 0 0 0 0 0 0 0 0 0 0 0 0 0 0 0 0 0 0 0 0 0 0 0 0 0 0 0 0 0
0 0 0 0 0 0 0 0 0 0 0 0 0 0 0 0 0 0 0 0 0 0 0 0 0 0 0 0 0 0 0 0 0 0 0 0 0 0
0 0 0 0 0 0 0 0 0 0 0 0 0 0 0 0 0 0 0 0 0 0 0 0 0 0 0 0 0 0 0 0 0 0 0 0 0 0
0 0 0 0 0 0 0 0 0 0 0 0 0 0 0 0 0 0 0 0 0 0 0 0 0 0 0 0 0 0 0 0 0 0 0 0 0 0
0 0 0 0 0 0 0 0 0 0 0 0 0 0 0 0 0 0 0 0 0 0 0 0 0 0 0 0 0 0 0 0 0 0 0 0 0 0
0 0 0 0 0 0 1 2 3 0 0 0 0 0 0 0 0 0 0 0 0 0 0 0 0 0 0 0 0 0 0 0 0 0 0 0 0 0
0 0 0 0 0 0 4 7 5 1 0 0 0 0 0 0 0 0 0 0 0 0 0 0 0 0 0 0 0 0 1 1 0 0 0 0 0 0
8 13 6 0 0 19 0 4 4 5 0 0 0 0 0 0 0 0 0 0 0 0 0 0 0 1 1 3 0 0 7 10 12 8 11 0 0 0